2016 Cux-Wetter.de -Die Nutzung der Wetterdaten nur mit ausdrcklicher Genehmigung
Wetterdaten: Montag, 26.09.2016
Datum Zeit Temp. A. Feuchte A. Luftdruck Regen Wind Richtung Richtung Sonnenschein Solar Taupunkt Windchill Windben
26.09.2016 00:00 17,9 C 90 % 1017,5 hPa 0,0 l/m 6,1 km/h (2 Bft) W 272 0 min 0 W/m 16,2 C 17,9 C 12,9 km/h (3 Bft)
26.09.2016 00:03 17,9 C 90 % 1017,4 hPa 0,0 l/m 6,1 km/h (2 Bft) W 261 0 min 0 W/m 16,2 C 17,9 C 12,9 km/h (3 Bft)
26.09.2016 00:06 18,0 C 90 % 1017,5 hPa 0,0 l/m 5,6 km/h (2 Bft) W 273 0 min 0 W/m 16,3 C 18,0 C 11,3 km/h (2 Bft)
26.09.2016 00:09 18,0 C 90 % 1017,5 hPa 0,0 l/m 5,8 km/h (2 Bft) W-SW 253 0 min 0 W/m 16,3 C 18,0 C 11,3 km/h (2 Bft)
26.09.2016 00:12 18,1 C 90 % 1017,6 hPa 0,0 l/m 9,1 km/h (2 Bft) W 268 0 min 0 W/m 16,4 C 16,9 C 16,1 km/h (3 Bft)
26.09.2016 00:15 18,1 C 90 % 1017,7 hPa 0,0 l/m 6,7 km/h (2 Bft) W-NW 297 0 min 0 W/m 16,4 C 18,0 C 11,3 km/h (2 Bft)
26.09.2016 00:18 18,0 C 90 % 1017,6 hPa 0,0 l/m 4,4 km/h (1 Bft) SW 232 0 min 0 W/m 16,3 C 18,0 C 12,9 km/h (3 Bft)
26.09.2016 00:21 17,9 C 89 % 1017,5 hPa 0,0 l/m 5,4 km/h (2 Bft) NW 304 0 min 0 W/m 16,1 C 17,9 C 12,9 km/h (3 Bft)
26.09.2016 00:24 17,8 C 87 % 1017,6 hPa 0,0 l/m 4,6 km/h (1 Bft) W 277 0 min 0 W/m 15,6 C 17,8 C 12,9 km/h (3 Bft)
26.09.2016 00:27 17,8 C 87 % 1017,6 hPa 0,0 l/m 4,2 km/h (1 Bft) W 271 0 min 0 W/m 15,6 C 17,8 C 11,3 km/h (2 Bft)
26.09.2016 00:30 17,9 C 87 % 1017,7 hPa 0,0 l/m 4,5 km/h (1 Bft) W 267 0 min 0 W/m 15,7 C 17,9 C 12,9 km/h (3 Bft)
26.09.2016 00:33 17,9 C 86 % 1017,8 hPa 0,0 l/m 5,3 km/h (1 Bft) W 273 0 min 0 W/m 15,5 C 17,9 C 14,5 km/h (3 Bft)
26.09.2016 00:36 17,9 C 87 % 1017,8 hPa 0,0 l/m 6,0 km/h (2 Bft) W 261 0 min 0 W/m 15,7 C 17,9 C 11,3 km/h (2 Bft)
26.09.2016 00:39 17,9 C 87 % 1017,8 hPa 0,0 l/m 8,8 km/h (2 Bft) NW 305 0 min 0 W/m 15,7 C 16,8 C 16,1 km/h (3 Bft)
26.09.2016 00:42 17,9 C 87 % 1017,8 hPa 0,0 l/m 5,5 km/h (2 Bft) W-NW 289 0 min 0 W/m 15,7 C 17,9 C 12,9 km/h (3 Bft)
26.09.2016 00:45 17,9 C 88 % 1017,8 hPa 0,0 l/m 5,1 km/h (1 Bft) W-NW 296 0 min 0 W/m 15,9 C 17,9 C 12,9 km/h (3 Bft)
26.09.2016 00:48 18,0 C 88 % 1017,9 hPa 0,0 l/m 3,4 km/h (1 Bft) W 265 0 min 0 W/m 16,0 C 18,0 C 12,9 km/h (3 Bft)
26.09.2016 00:51 18,0 C 88 % 1017,9 hPa 0,0 l/m 4,6 km/h (1 Bft) NW 324 0 min 0 W/m 16,0 C 18,0 C 11,3 km/h (2 Bft)
26.09.2016 00:54 18,0 C 88 % 1017,9 hPa 0,0 l/m 5,1 km/h (1 Bft) W-NW 300 0 min 0 W/m 16,0 C 18,0 C 14,5 km/h (3 Bft)
26.09.2016 00:57 18,0 C 88 % 1018,0 hPa 0,0 l/m 5,1 km/h (1 Bft) W 281 0 min 0 W/m 16,0 C 18,0 C 14,5 km/h (3 Bft)
26.09.2016 01:00 18,0 C 88 % 1017,9 hPa 0,0 l/m 7,8 km/h (2 Bft) W 277 0 min 0 W/m 16,0 C 17,3 C 14,5 km/h (3 Bft)
26.09.2016 01:03 18,0 C 89 % 1017,9 hPa 0,0 l/m 2,8 km/h (1 Bft) W-NW 284 0 min 0 W/m 16,2 C 18,0 C 8,0 km/h (2 Bft)
26.09.2016 01:06 17,9 C 89 % 1017,9 hPa 0,0 l/m 4,9 km/h (1 Bft) W 266 0 min 0 W/m 16,1 C 17,9 C 14,5 km/h (3 Bft)
26.09.2016 01:09 17,9 C 89 % 1018,0 hPa 0,0 l/m 6,9 km/h (2 Bft) W 281 0 min 0 W/m 16,1 C 17,7 C 16,1 km/h (3 Bft)
26.09.2016 01:12 17,8 C 88 % 1018,0 hPa 0,0 l/m 6,2 km/h (2 Bft) W-NW 284 0 min 0 W/m 15,8 C 17,8 C 16,1 km/h (3 Bft)
26.09.2016 01:15 17,7 C 88 % 1018,0 hPa 0,0 l/m 5,4 km/h (2 Bft) W 266 0 min 0 W/m 15,7 C 17,7 C 11,3 km/h (2 Bft)
26.09.2016 01:18 17,7 C 88 % 1018,0 hPa 0,0 l/m 5,9 km/h (2 Bft) W 279 0 min 0 W/m 15,7 C 17,7 C 12,9 km/h (3 Bft)
26.09.2016 01:21 17,6 C 88 % 1018,0 hPa 0,0 l/m 5,0 km/h (1 Bft) W 268 0 min 0 W/m 15,6 C 17,6 C 12,9 km/h (3 Bft)
26.09.2016 01:24 17,6 C 88 % 1018,0 hPa 0,0 l/m 5,8 km/h (2 Bft) W-NW 294 0 min 0 W/m 15,6 C 17,6 C 16,1 km/h (3 Bft)
26.09.2016 01:27 17,6 C 89 % 1018,0 hPa 0,0 l/m 6,1 km/h (2 Bft) N-NW 329 0 min 0 W/m 15,8 C 17,6 C 14,5 km/h (3 Bft)
26.09.2016 01:30 17,6 C 89 % 1018,1 hPa 0,0 l/m 5,2 km/h (1 Bft) W-NW 287 0 min 0 W/m 15,8 C 17,6 C 12,9 km/h (3 Bft)
26.09.2016 01:33 17,5 C 89 % 1018,2 hPa 0,0 l/m 3,8 km/h (1 Bft) W-NW 299 0 min 0 W/m 15,7 C 17,5 C 8,0 km/h (2 Bft)
26.09.2016 01:36 17,5 C 89 % 1018,3 hPa 0,0 l/m 4,2 km/h (1 Bft) NW 323 0 min 0 W/m 15,7 C 17,5 C 9,7 km/h (2 Bft)
26.09.2016 01:39 17,5 C 89 % 1018,3 hPa 0,0 l/m 5,3 km/h (1 Bft) W 267 0 min 0 W/m 15,7 C 17,5 C 14,5 km/h (3 Bft)
26.09.2016 01:42 17,4 C 89 % 1018,4 hPa 0,0 l/m 6,0 km/h (2 Bft) W-NW 285 0 min 0 W/m 15,6 C 17,4 C 12,9 km/h (3 Bft)
26.09.2016 01:45 17,3 C 89 % 1018,5 hPa 0,0 l/m 7,5 km/h (2 Bft) NW 311 0 min 0 W/m 15,5 C 16,8 C 14,5 km/h (3 Bft)
26.09.2016 01:48 17,2 C 89 % 1018,5 hPa 0,0 l/m 8,1 km/h (2 Bft) W 279 0 min 0 W/m 15,4 C 16,4 C 16,1 km/h (3 Bft)
26.09.2016 01:51 17,2 C 89 % 1018,6 hPa 0,0 l/m 7,4 km/h (2 Bft) W 272 0 min 0 W/m 15,4 C 16,7 C 14,5 km/h (3 Bft)
26.09.2016 01:54 17,2 C 89 % 1018,5 hPa 0,0 l/m 5,3 km/h (1 Bft) N 350 0 min 0 W/m 15,4 C 17,2 C 9,7 km/h (2 Bft)
26.09.2016 01:57 17,2 C 89 % 1018,5 hPa 0,0 l/m 5,0 km/h (1 Bft) W-NW 299 0 min 0 W/m 15,4 C 17,2 C 11,3 km/h (2 Bft)
26.09.2016 02:00 17,2 C 89 % 1018,6 hPa 0,0 l/m 5,5 km/h (2 Bft) W 275 0 min 0 W/m 15,4 C 17,2 C 11,3 km/h (2 Bft)
26.09.2016 02:03 17,1 C 88 % 1018,6 hPa 0,0 l/m 5,5 km/h (2 Bft) NW 316 0 min 0 W/m 15,1 C 17,1 C 12,9 km/h (3 Bft)
26.09.2016 02:06 17,1 C 88 % 1018,5 hPa 0,0 l/m 6,1 km/h (2 Bft) W-NW 286 0 min 0 W/m 15,1 C 17,1 C 11,3 km/h (2 Bft)
26.09.2016 02:09 17,1 C 87 % 1018,5 hPa 0,0 l/m 4,6 km/h (1 Bft) W 265 0 min 0 W/m 14,9 C 17,1 C 9,7 km/h (2 Bft)
26.09.2016 02:12 17,0 C 87 % 1018,5 hPa 0,0 l/m 4,3 km/h (1 Bft) W 274 0 min 0 W/m 14,8 C 17,0 C 11,3 km/h (2 Bft)
26.09.2016 02:15 17,0 C 87 % 1018,6 hPa 0,0 l/m 5,1 km/h (1 Bft) W 260 0 min 0 W/m 14,8 C 17,0 C 12,9 km/h (3 Bft)
26.09.2016 02:18 17,0 C 87 % 1018,6 hPa 0,0 l/m 3,3 km/h (1 Bft) W 279 0 min 0 W/m 14,8 C 17,0 C 6,4 km/h (2 Bft)
26.09.2016 02:21 17,0 C 86 % 1018,6 hPa 0,0 l/m 3,3 km/h (1 Bft) W-NW 295 0 min 0 W/m 14,6 C 17,0 C 6,4 km/h (2 Bft)
26.09.2016 02:24 17,0 C 86 % 1018,5 hPa 0,0 l/m 4,4 km/h (1 Bft) W-NW 302 0 min 0 W/m 14,6 C 17,0 C 8,0 km/h (2 Bft)
26.09.2016 02:27 17,1 C 85 % 1018,5 hPa 0,0 l/m 3,9 km/h (1 Bft) NW 309 0 min 0 W/m 14,6 C 17,1 C 8,0 km/h (2 Bft)
26.09.2016 02:30 17,1 C 85 % 1018,6 hPa 0,0 l/m 4,6 km/h (1 Bft) W-NW 283 0 min 0 W/m 14,6 C 17,1 C 9,7 km/h (2 Bft)
26.09.2016 02:33 17,1 C 85 % 1018,5 hPa 0,0 l/m 3,7 km/h (1 Bft) W-NW 289 0 min 0 W/m 14,6 C 17,1 C 6,4 km/h (2 Bft)
26.09.2016 02:36 17,1 C 85 % 1018,5 hPa 0,0 l/m 2,9 km/h (1 Bft) NW 324 0 min 0 W/m 14,6 C 17,1 C 6,4 km/h (2 Bft)
26.09.2016 02:39 17,1 C 85 % 1018,5 hPa 0,0 l/m 2,8 km/h (1 Bft) NW 315 0 min 0 W/m 14,6 C 17,1 C 6,4 km/h (2 Bft)
26.09.2016 02:42 17,1 C 85 % 1018,5 hPa 0,0 l/m 3,5 km/h (1 Bft) W-NW 285 0 min 0 W/m 14,6 C 17,1 C 4,8 km/h (1 Bft)
26.09.2016 02:45 17,1 C 85 % 1018,6 hPa 0,0 l/m 2,3 km/h (1 Bft) W-NW 303 0 min 0 W/m 14,6 C 17,1 C 6,4 km/h (2 Bft)
26.09.2016 02:48 17,1 C 85 % 1018,7 hPa 0,0 l/m 3,2 km/h (1 Bft) W 266 0 min 0 W/m 14,6 C 17,1 C 6,4 km/h (2 Bft)
26.09.2016 02:51 17,1 C 85 % 1018,7 hPa 0,0 l/m 4,4 km/h (1 Bft) W-NW 288 0 min 0 W/m 14,6 C 17,1 C 9,7 km/h (2 Bft)
26.09.2016 02:54 17,1 C 85 % 1018,8 hPa 0,0 l/m 3,2 km/h (1 Bft) W-NW 284 0 min 0 W/m 14,6 C 17,1 C 6,4 km/h (2 Bft)
26.09.2016 02:57 17,1 C 86 % 1018,8 hPa 0,0 l/m 3,0 km/h (1 Bft) W-NW 285 0 min 0 W/m 14,7 C 17,1 C 6,4 km/h (2 Bft)
26.09.2016 03:00 17,1 C 86 % 1018,7 hPa 0,0 l/m 2,6 km/h (1 Bft) W-NW 286 0 min 0 W/m 14,7 C 17,1 C 4,8 km/h (1 Bft)
26.09.2016 03:03 17,1 C 87 % 1018,7 hPa 0,0 l/m 2,8 km/h (1 Bft) W-NW 284 0 min 0 W/m 14,9 C 17,1 C 6,4 km/h (2 Bft)
26.09.2016 03:06 17,1 C 87 % 1018,8 hPa 0,0 l/m 2,7 km/h (1 Bft) W 277 0 min 0 W/m 14,9 C 17,1 C 9,7 km/h (2 Bft)
26.09.2016 03:09 17,1 C 87 % 1018,8 hPa 0,0 l/m 3,6 km/h (1 Bft) W 273 0 min 0 W/m 14,9 C 17,1 C 11,3 km/h (2 Bft)
26.09.2016 03:12 17,1 C 87 % 1018,8 hPa 0,0 l/m 2,9 km/h (1 Bft) W-NW 290 0 min 0 W/m 14,9 C 17,1 C 6,4 km/h (2 Bft)
26.09.2016 03:15 17,0 C 87 % 1018,8 hPa 0,0 l/m 3,4 km/h (1 Bft) W 275 0 min 0 W/m 14,8 C 17,0 C 6,4 km/h (2 Bft)
26.09.2016 03:18 17,0 C 88 % 1018,8 hPa 0,0 l/m 3,4 km/h (1 Bft) W 271 0 min 0 W/m 15,0 C 17,0 C 6,4 km/h (2 Bft)
26.09.2016 03:21 17,0 C 88 % 1018,8 hPa 0,0 l/m 2,9 km/h (1 Bft) W 269 0 min 0 W/m 15,0 C 17,0 C 6,4 km/h (2 Bft)
26.09.2016 03:24 17,0 C 88 % 1018,8 hPa 0,0 l/m 2,1 km/h (1 Bft) W 269 0 min 0 W/m 15,0 C 17,0 C 4,8 km/h (1 Bft)
26.09.2016 03:27 16,9 C 88 % 1018,9 hPa 0,0 l/m 4,2 km/h (1 Bft) W 268 0 min 0 W/m 14,9 C 16,9 C 6,4 km/h (2 Bft)
26.09.2016 03:30 16,9 C 88 % 1018,9 hPa 0,0 l/m 2,4 km/h (1 Bft) W 268 0 min 0 W/m 14,9 C 16,9 C 4,8 km/h (1 Bft)
26.09.2016 03:33 16,9 C 88 % 1018,9 hPa 0,0 l/m 3,0 km/h (1 Bft) W 268 0 min 0 W/m 14,9 C 16,9 C 4,8 km/h (1 Bft)
26.09.2016 03:36 16,9 C 89 % 1018,9 hPa 0,0 l/m 3,6 km/h (1 Bft) W-NW 284 0 min 0 W/m 15,1 C 16,9 C 6,4 km/h (2 Bft)
26.09.2016 03:39 16,9 C 89 % 1019,0 hPa 0,0 l/m 3,2 km/h (1 Bft) W 279 0 min 0 W/m 15,1 C 16,9 C 4,8 km/h (1 Bft)
26.09.2016 03:42 16,9 C 89 % 1019,1 hPa 0,0 l/m 2,7 km/h (1 Bft) W 275 0 min 0 W/m 15,1 C 16,9 C 4,8 km/h (1 Bft)
26.09.2016 03:45 16,9 C 89 % 1019,2 hPa 0,0 l/m 1,7 km/h (1 Bft) W 275 0 min 0 W/m 15,1 C 16,9 C 3,2 km/h (1 Bft)
26.09.2016 03:48 16,9 C 89 % 1019,2 hPa 0,0 l/m 1,9 km/h (1 Bft) W 275 0 min 0 W/m 15,1 C 16,9 C 3,2 km/h (1 Bft)
26.09.2016 03:51 16,8 C 89 % 1019,1 hPa 0,0 l/m 2,6 km/h (1 Bft) W 274 0 min 0 W/m 15,0 C 16,8 C 4,8 km/h (1 Bft)
26.09.2016 03:54 16,8 C 89 % 1019,1 hPa 0,0 l/m 3,3 km/h (1 Bft) W-NW 284 0 min 0 W/m 15,0 C 16,8 C 8,0 km/h (2 Bft)
26.09.2016 03:57 16,7 C 89 % 1019,1 hPa 0,0 l/m 2,6 km/h (1 Bft) W-NW 286 0 min 0 W/m 14,9 C 16,7 C 6,4 km/h (2 Bft)
26.09.2016 04:00 16,7 C 88 % 1019,1 hPa 0,0 l/m 3,3 km/h (1 Bft) W 269 0 min 0 W/m 14,7 C 16,7 C 9,7 km/h (2 Bft)
26.09.2016 04:03 16,7 C 87 % 1019,3 hPa 0,0 l/m 3,6 km/h (1 Bft) W 279 0 min 0 W/m 14,5 C 16,7 C 9,7 km/h (2 Bft)
26.09.2016 04:06 16,7 C 86 % 1019,3 hPa 0,0 l/m 3,6 km/h (1 Bft) SW 227 0 min 0 W/m 14,3 C 16,7 C 6,4 km/h (2 Bft)
26.09.2016 04:09 16,8 C 85 % 1019,4 hPa 0,0 l/m 4,0 km/h (1 Bft) W 264 0 min 0 W/m 14,3 C 16,8 C 9,7 km/h (2 Bft)
26.09.2016 04:12 16,8 C 85 % 1019,4 hPa 0,0 l/m 4,9 km/h (1 Bft) W 263 0 min 0 W/m 14,3 C 16,8 C 11,3 km/h (2 Bft)
26.09.2016 04:15 16,8 C 85 % 1019,4 hPa 0,0 l/m 5,1 km/h (1 Bft) W 277 0 min 0 W/m 14,3 C 16,8 C 11,3 km/h (2 Bft)
26.09.2016 04:18 16,8 C 84 % 1019,4 hPa 0,0 l/m 4,0 km/h (1 Bft) W 272 0 min 0 W/m 14,1 C 16,8 C 9,7 km/h (2 Bft)
26.09.2016 04:21 16,8 C 84 % 1019,4 hPa 0,0 l/m 4,6 km/h (1 Bft) W-NW 288 0 min 0 W/m 14,1 C 16,8 C 9,7 km/h (2 Bft)
26.09.2016 04:24 16,9 C 84 % 1019,4 hPa 0,0 l/m 4,4 km/h (1 Bft) W 261 0 min 0 W/m 14,2 C 16,9 C 6,4 km/h (2 Bft)
26.09.2016 04:27 16,9 C 84 % 1019,4 hPa 0,0 l/m 4,2 km/h (1 Bft) W-SW 242 0 min 0 W/m 14,2 C 16,9 C 9,7 km/h (2 Bft)
26.09.2016 04:30 16,9 C 84 % 1019,3 hPa 0,0 l/m 3,1 km/h (1 Bft) W 267 0 min 0 W/m 14,2 C 16,9 C 8,0 km/h (2 Bft)
26.09.2016 04:33 16,8 C 84 % 1019,4 hPa 0,0 l/m 2,3 km/h (1 Bft) W 267 0 min 0 W/m 14,1 C 16,8 C 4,8 km/h (1 Bft)
26.09.2016 04:36 16,8 C 85 % 1019,4 hPa 0,0 l/m 3,4 km/h (1 Bft) W 272 0 min 0 W/m 14,3 C 16,8 C 6,4 km/h (2 Bft)
26.09.2016 04:39 16,9 C 85 % 1019,4 hPa 0,0 l/m 3,7 km/h (1 Bft) W-NW 292 0 min 0 W/m 14,4 C 16,9 C 6,4 km/h (2 Bft)
26.09.2016 04:42 16,9 C 85 % 1019,4 hPa 0,0 l/m 3,8 km/h (1 Bft) W 280 0 min 0 W/m 14,4 C 16,9 C 9,7 km/h (2 Bft)
26.09.2016 04:45 16,9 C 85 % 1019,4 hPa 0,0 l/m 3,8 km/h (1 Bft) W-NW 282 0 min 0 W/m 14,4 C 16,9 C 9,7 km/h (2 Bft)
26.09.2016 04:48 16,9 C 85 % 1019,4 hPa 0,0 l/m 3,5 km/h (1 Bft) W 263 0 min 0 W/m 14,4 C 16,9 C 6,4 km/h (2 Bft)
26.09.2016 04:51 16,9 C 85 % 1019,4 hPa 0,0 l/m 3,8 km/h (1 Bft) W 269 0 min 0 W/m 14,4 C 16,9 C 6,4 km/h (2 Bft)
26.09.2016 04:54 16,9 C 85 % 1019,5 hPa 0,0 l/m 4,9 km/h (1 Bft) W 269 0 min 0 W/m 14,4 C 16,9 C 9,7 km/h (2 Bft)
26.09.2016 04:57 16,9 C 85 % 1019,5 hPa 0,0 l/m 5,7 km/h (2 Bft) W 265 0 min 0 W/m 14,4 C 16,9 C 11,3 km/h (2 Bft)
26.09.2016 05:00 16,9 C 85 % 1019,5 hPa 0,0 l/m 3,1 km/h (1 Bft) W-SW 244 0 min 0 W/m 14,4 C 16,9 C 11,3 km/h (2 Bft)
26.09.2016 05:03 16,8 C 85 % 1019,5 hPa 0,0 l/m 4,2 km/h (1 Bft) W 275 0 min 0 W/m 14,3 C 16,8 C 9,7 km/h (2 Bft)
26.09.2016 05:06 16,8 C 85 % 1019,5 hPa 0,0 l/m 3,9 km/h (1 Bft) W 281 0 min 0 W/m 14,3 C 16,8 C 9,7 km/h (2 Bft)
26.09.2016 05:09 16,8 C 85 % 1019,5 hPa 0,0 l/m 1,9 km/h (1 Bft) W 281 0 min 0 W/m 14,3 C 16,8 C 4,8 km/h (1 Bft)
26.09.2016 05:12 16,8 C 85 % 1019,5 hPa 0,0 l/m 4,0 km/h (1 Bft) W 279 0 min 0 W/m 14,3 C 16,8 C 6,4 km/h (2 Bft)
26.09.2016 05:15 16,8 C 85 % 1019,5 hPa 0,0 l/m 2,9 km/h (1 Bft) W 279 0 min 0 W/m 14,3 C 16,8 C 6,4 km/h (2 Bft)
26.09.2016 05:18 16,8 C 84 % 1019,5 hPa 0,0 l/m 1,9 km/h (1 Bft) W 275 0 min 0 W/m 14,1 C 16,8 C 4,8 km/h (1 Bft)
26.09.2016 05:21 16,8 C 85 % 1019,5 hPa 0,0 l/m 3,2 km/h (1 Bft) W 269 0 min 0 W/m 14,3 C 16,8 C 6,4 km/h (2 Bft)
26.09.2016 05:24 16,8 C 84 % 1019,6 hPa 0,0 l/m 4,1 km/h (1 Bft) W 275 0 min 0 W/m 14,1 C 16,8 C 11,3 km/h (2 Bft)
26.09.2016 05:27 16,7 C 84 % 1019,7 hPa 0,0 l/m 2,9 km/h (1 Bft) W 281 0 min 0 W/m 14,0 C 16,7 C 4,8 km/h (1 Bft)
26.09.2016 05:30 16,7 C 84 % 1019,6 hPa 0,0 l/m 2,1 km/h (1 Bft) W-NW 284 0 min 0 W/m 14,0 C 16,7 C 4,8 km/h (1 Bft)
26.09.2016 05:33 16,7 C 85 % 1019,7 hPa 0,0 l/m 2,5 km/h (1 Bft) W-NW 282 0 min 0 W/m 14,2 C 16,7 C 4,8 km/h (1 Bft)
26.09.2016 05:36 16,7 C 85 % 1019,7 hPa 0,0 l/m 4,8 km/h (1 Bft) SW 224 0 min 0 W/m 14,2 C 16,7 C 6,4 km/h (2 Bft)
26.09.2016 05:39 16,7 C 86 % 1019,7 hPa 0,0 l/m 5,6 km/h (2 Bft) SW 222 0 min 0 W/m 14,3 C 16,7 C 6,4 km/h (2 Bft)
26.09.2016 05:42 16,6 C 87 % 1019,8 hPa 0,0 l/m 4,0 km/h (1 Bft) SW 223 0 min 0 W/m 14,4 C 16,6 C 6,4 km/h (2 Bft)
26.09.2016 05:45 16,4 C 88 % 1019,8 hPa 0,0 l/m 3,8 km/h (1 Bft) SW 234 0 min 0 W/m 14,4 C 16,4 C 6,4 km/h (2 Bft)
26.09.2016 05:48 16,4 C 88 % 1019,8 hPa 0,0 l/m 3,3 km/h (1 Bft) W-SW 245 0 min 0 W/m 14,4 C 16,4 C 6,4 km/h (2 Bft)
26.09.2016 05:51 16,3 C 89 % 1019,7 hPa 0,0 l/m 3,2 km/h (1 Bft) W-SW 252 0 min 0 W/m 14,5 C 16,3 C 4,8 km/h (1 Bft)
26.09.2016 05:54 16,3 C 89 % 1019,8 hPa 0,0 l/m 3,4 km/h (1 Bft) W-SW 250 0 min 0 W/m 14,5 C 16,3 C 4,8 km/h (1 Bft)
26.09.2016 05:57 16,3 C 90 % 1019,8 hPa 0,0 l/m 2,0 km/h (1 Bft) W-SW 250 0 min 0 W/m 14,7 C 16,3 C 4,8 km/h (1 Bft)
26.09.2016 06:00 16,3 C 90 % 1019,8 hPa 0,0 l/m 4,4 km/h (1 Bft) SW 234 0 min 0 W/m 14,7 C 16,3 C 8,0 km/h (2 Bft)
26.09.2016 06:03 16,3 C 90 % 1019,8 hPa 0,0 l/m 4,5 km/h (1 Bft) SW 232 0 min 0 W/m 14,7 C 16,3 C 6,4 km/h (2 Bft)
26.09.2016 06:06 16,2 C 90 % 1019,8 hPa 0,0 l/m 4,0 km/h (1 Bft) SW 232 0 min 0 W/m 14,6 C 16,2 C 6,4 km/h (2 Bft)
26.09.2016 06:09 16,2 C 91 % 1019,8 hPa 0,0 l/m 4,1 km/h (1 Bft) SW 228 0 min 0 W/m 14,7 C 16,2 C 6,4 km/h (2 Bft)
26.09.2016 06:12 16,2 C 91 % 1019,8 hPa 0,0 l/m 3,4 km/h (1 Bft) SW 229 0 min 0 W/m 14,7 C 16,2 C 6,4 km/h (2 Bft)
26.09.2016 06:15 16,2 C 91 % 1019,9 hPa 0,0 l/m 2,6 km/h (1 Bft) SW 228 0 min 0 W/m 14,7 C 16,2 C 4,8 km/h (1 Bft)
26.09.2016 06:18 16,2 C 92 % 1019,9 hPa 0,0 l/m 3,5 km/h (1 Bft) SW 228 0 min 0 W/m 14,9 C 16,2 C 4,8 km/h (1 Bft)
26.09.2016 06:21 16,2 C 92 % 1019,8 hPa 0,0 l/m 3,1 km/h (1 Bft) SW 228 0 min 0 W/m 14,9 C 16,2 C 4,8 km/h (1 Bft)
26.09.2016 06:24 16,3 C 92 % 1019,9 hPa 0,0 l/m 3,1 km/h (1 Bft) SW 228 0 min 0 W/m 15,0 C 16,3 C 4,8 km/h (1 Bft)
26.09.2016 06:27 16,3 C 92 % 1019,8 hPa 0,0 l/m 3,4 km/h (1 Bft) W-SW 238 0 min 0 W/m 15,0 C 16,3 C 6,4 km/h (2 Bft)
26.09.2016 06:30 16,3 C 92 % 1019,8 hPa 0,0 l/m 4,7 km/h (1 Bft) W-SW 253 0 min 0 W/m 15,0 C 16,3 C 6,4 km/h (2 Bft)
26.09.2016 06:33 16,3 C 92 % 1019,8 hPa 0,0 l/m 3,1 km/h (1 Bft) W-SW 252 0 min 0 W/m 15,0 C 16,3 C 4,8 km/h (1 Bft)
26.09.2016 06:36 16,3 C 92 % 1019,8 hPa 0,0 l/m 3,5 km/h (1 Bft) W-SW 248 0 min 0 W/m 15,0 C 16,3 C 6,4 km/h (2 Bft)
26.09.2016 06:39 16,3 C 92 % 1019,8 hPa 0,0 l/m 3,2 km/h (1 Bft) W-SW 248 0 min 0 W/m 15,0 C 16,3 C 6,4 km/h (2 Bft)
26.09.2016 06:42 16,3 C 92 % 1019,9 hPa 0,0 l/m 3,9 km/h (1 Bft) SW 236 0 min 0 W/m 15,0 C 16,3 C 6,4 km/h (2 Bft)
26.09.2016 06:45 16,2 C 92 % 1019,8 hPa 0,0 l/m 3,5 km/h (1 Bft) SW 236 0 min 0 W/m 14,9 C 16,2 C 6,4 km/h (2 Bft)
26.09.2016 06:48 16,1 C 92 % 1019,9 hPa 0,0 l/m 2,4 km/h (1 Bft) SW 236 0 min 0 W/m 14,8 C 16,1 C 3,2 km/h (1 Bft)
26.09.2016 06:51 16,1 C 92 % 1019,9 hPa 0,0 l/m 1,9 km/h (1 Bft) SW 236 0 min 0 W/m 14,8 C 16,1 C 3,2 km/h (1 Bft)
26.09.2016 06:54 15,9 C 92 % 1019,9 hPa 0,0 l/m 1,2 km/h (1 Bft) SW 236 0 min 0 W/m 14,6 C 15,9 C 3,2 km/h (1 Bft)
26.09.2016 06:57 15,8 C 93 % 1020,0 hPa 0,0 l/m 1,6 km/h (1 Bft) SW 236 0 min 0 W/m 14,7 C 15,8 C 3,2 km/h (1 Bft)
26.09.2016 07:00 15,8 C 93 % 1020,0 hPa 0,0 l/m 0,5 km/h (0 Bft) SW 236 0 min 0 W/m 14,7 C 15,8 C 1,6 km/h (1 Bft)
26.09.2016 07:03 15,7 C 93 % 1020,0 hPa 0,0 l/m 0,5 km/h (0 Bft) SW 236 0 min 0 W/m 14,6 C 15,7 C 1,6 km/h (1 Bft)
26.09.2016 07:06 15,7 C 93 % 1020,0 hPa 0,0 l/m 0,8 km/h (0 Bft) SW 236 0 min 0 W/m 14,6 C 15,7 C 1,6 km/h (1 Bft)
26.09.2016 07:09 15,6 C 93 % 1020,0 hPa 0,0 l/m 0,4 km/h (0 Bft) SW 236 0 min 0 W/m 14,5 C 15,6 C 1,6 km/h (1 Bft)
26.09.2016 07:12 15,6 C 94 % 1020,1 hPa 0,0 l/m 0,3 km/h (0 Bft) SW 236 0 min 0 W/m 14,6 C 15,6 C 1,6 km/h (1 Bft)
26.09.2016 07:15 15,6 C 94 % 1020,1 hPa 0,0 l/m 0,0 km/h (0 Bft) SW 236 0 min 0 W/m 14,6 C 15,6 C 0,0 km/h (0 Bft)
26.09.2016 07:18 15,6 C 94 % 1020,1 hPa 0,0 l/m 0,0 km/h (0 Bft) SW 236 0 min 0 W/m 14,6 C 15,6 C 0,0 km/h (0 Bft)
26.09.2016 07:21 15,6 C 94 % 1020,1 hPa 0,0 l/m 0,0 km/h (0 Bft) SW 236 0 min 0 W/m 14,6 C 15,6 C 0,0 km/h (0 Bft)
26.09.2016 07:24 15,5 C 94 % 1020,1 hPa 0,0 l/m 0,0 km/h (0 Bft) SW 236 0 min 0 W/m 14,5 C 15,5 C 0,0 km/h (0 Bft)
26.09.2016 07:27 15,5 C 94 % 1020,2 hPa 0,0 l/m 1,4 km/h (1 Bft) SW 236 0 min 0 W/m 14,5 C 15,5 C 3,2 km/h (1 Bft)
26.09.2016 07:30 15,5 C 94 % 1020,2 hPa 0,0 l/m 0,4 km/h (0 Bft) SW 236 0 min 0 W/m 14,5 C 15,5 C 1,6 km/h (1 Bft)
26.09.2016 07:33 15,4 C 94 % 1020,2 hPa 0,0 l/m 0,2 km/h (0 Bft) SW 236 0 min 5 W/m 14,4 C 15,4 C 1,6 km/h (1 Bft)
26.09.2016 07:36 15,4 C 94 % 1020,2 hPa 0,0 l/m 0,1 km/h (0 Bft) SW 236 0 min 5 W/m 14,4 C 15,4 C 1,6 km/h (1 Bft)
26.09.2016 07:39 15,3 C 94 % 1020,2 hPa 0,0 l/m 0,2 km/h (0 Bft) SW 236 0 min 7 W/m 14,3 C 15,3 C 1,6 km/h (1 Bft)
26.09.2016 07:42 15,2 C 94 % 1020,3 hPa 0,0 l/m 0,0 km/h (0 Bft) SW 236 0 min 7 W/m 14,2 C 15,2 C 1,6 km/h (1 Bft)
26.09.2016 07:45 15,2 C 94 % 1020,4 hPa 0,0 l/m 0,0 km/h (0 Bft) SW 236 0 min 9 W/m 14,2 C 15,2 C 0,0 km/h (0 Bft)
26.09.2016 07:48 15,1 C 94 % 1020,3 hPa 0,0 l/m 0,0 km/h (0 Bft) SW 236 0 min 9 W/m 14,1 C 15,1 C 0,0 km/h (0 Bft)
26.09.2016 07:51 15,0 C 95 % 1020,4 hPa 0,0 l/m 0,0 km/h (0 Bft) SW 236 0 min 9 W/m 14,2 C 15,0 C 0,0 km/h (0 Bft)
26.09.2016 07:54 15,0 C 95 % 1020,4 hPa 0,0 l/m 0,0 km/h (0 Bft) SW 236 0 min 9 W/m 14,2 C 15,0 C 0,0 km/h (0 Bft)
26.09.2016 07:57 14,9 C 95 % 1020,4 hPa 0,0 l/m 0,0 km/h (0 Bft) SW 236 0 min 9 W/m 14,1 C 14,9 C 0,0 km/h (0 Bft)
26.09.2016 08:00 14,9 C 95 % 1020,3 hPa 0,0 l/m 0,0 km/h (0 Bft) SW 236 0 min 11 W/m 14,1 C 14,9 C 0,0 km/h (0 Bft)
26.09.2016 08:03 14,9 C 95 % 1020,4 hPa 0,0 l/m 0,0 km/h (0 Bft) SW 236 0 min 12 W/m 14,1 C 14,9 C 0,0 km/h (0 Bft)
26.09.2016 08:06 14,9 C 95 % 1020,4 hPa 0,0 l/m 1,2 km/h (1 Bft) W-NW 299 0 min 12 W/m 14,1 C 14,9 C 6,4 km/h (2 Bft)
26.09.2016 08:09 15,1 C 96 % 1020,4 hPa 0,0 l/m 1,5 km/h (1 Bft) W-NW 299 0 min 14 W/m 14,5 C 15,1 C 3,2 km/h (1 Bft)
26.09.2016 08:12 15,3 C 95 % 1020,5 hPa 0,0 l/m 2,4 km/h (1 Bft) NW 319 0 min 14 W/m 14,5 C 15,3 C 6,4 km/h (2 Bft)
26.09.2016 08:15 15,5 C 95 % 1020,4 hPa 0,0 l/m 4,0 km/h (1 Bft) W-NW 302 0 min 12 W/m 14,7 C 15,5 C 11,3 km/h (2 Bft)
26.09.2016 08:18 15,7 C 94 % 1020,4 hPa 0,0 l/m 3,7 km/h (1 Bft) W 271 0 min 14 W/m 14,7 C 15,7 C 8,0 km/h (2 Bft)
26.09.2016 08:21 15,8 C 93 % 1020,4 hPa 0,0 l/m 4,3 km/h (1 Bft) N-NW 334 0 min 14 W/m 14,7 C 15,8 C 11,3 km/h (2 Bft)
26.09.2016 08:24 16,0 C 92 % 1020,5 hPa 0,0 l/m 5,5 km/h (2 Bft) W-NW 287 0 min 14 W/m 14,7 C 16,0 C 14,5 km/h (3 Bft)
26.09.2016 08:27 16,2 C 91 % 1020,6 hPa 0,0 l/m 3,3 km/h (1 Bft) W 265 0 min 12 W/m 14,7 C 16,2 C 8,0 km/h (2 Bft)
26.09.2016 08:30 16,3 C 90 % 1020,5 hPa 0,0 l/m 4,0 km/h (1 Bft) N-NW 340 0 min 12 W/m 14,7 C 16,3 C 11,3 km/h (2 Bft)
26.09.2016 08:33 16,4 C 89 % 1020,6 hPa 0,0 l/m 3,2 km/h (1 Bft) NW 305 0 min 12 W/m 14,6 C 16,4 C 8,0 km/h (2 Bft)
26.09.2016 08:36 16,5 C 87 % 1020,6 hPa 0,0 l/m 3,0 km/h (1 Bft) W-NW 284 0 min 12 W/m 14,3 C 16,5 C 6,4 km/h (2 Bft)
26.09.2016 08:39 16,6 C 87 % 1020,6 hPa 0,0 l/m 3,8 km/h (1 Bft) W 276 0 min 14 W/m 14,4 C 16,6 C 8,0 km/h (2 Bft)
26.09.2016 08:42 16,7 C 87 % 1020,6 hPa 0,0 l/m 4,6 km/h (1 Bft) W 279 0 min 14 W/m 14,5 C 16,7 C 11,3 km/h (2 Bft)
26.09.2016 08:45 16,8 C 86 % 1020,7 hPa 0,0 l/m 1,9 km/h (1 Bft) W-NW 286 0 min 16 W/m 14,4 C 16,8 C 6,4 km/h (2 Bft)
26.09.2016 08:48 16,8 C 86 % 1020,7 hPa 0,0 l/m 3,9 km/h (1 Bft) W 280 0 min 18 W/m 14,4 C 16,8 C 9,7 km/h (2 Bft)
26.09.2016 08:51 16,8 C 85 % 1020,7 hPa 0,0 l/m 4,5 km/h (1 Bft) NW 309 0 min 18 W/m 14,3 C 16,8 C 9,7 km/h (2 Bft)
26.09.2016 08:54 16,8 C 84 % 1020,7 hPa 0,0 l/m 5,0 km/h (1 Bft) W 271 0 min 19 W/m 14,1 C 16,8 C 12,9 km/h (3 Bft)
26.09.2016 08:57 16,9 C 84 % 1020,7 hPa 0,0 l/m 4,0 km/h (1 Bft) NW 313 0 min 19 W/m 14,2 C 16,9 C 14,5 km/h (3 Bft)
26.09.2016 09:00 16,9 C 83 % 1020,7 hPa 0,0 l/m 4,7 km/h (1 Bft) W-NW 299 0 min 21 W/m 14,0 C 16,9 C 9,7 km/h (2 Bft)
26.09.2016 09:03 17,1 C 83 % 1020,7 hPa 0,0 l/m 4,5 km/h (1 Bft) NW 309 0 min 21 W/m 14,2 C 17,1 C 9,7 km/h (2 Bft)
26.09.2016 09:06 17,1 C 82 % 1020,7 hPa 0,0 l/m 3,9 km/h (1 Bft) W 275 0 min 21 W/m 14,0 C 17,1 C 9,7 km/h (2 Bft)
26.09.2016 09:09 17,2 C 82 % 1020,8 hPa 0,0 l/m 3,9 km/h (1 Bft) W-NW 301 0 min 21 W/m 14,1 C 17,2 C 11,3 km/h (2 Bft)
26.09.2016 09:12 17,3 C 82 % 1020,9 hPa 0,0 l/m 3,1 km/h (1 Bft) NW 306 0 min 21 W/m 14,2 C 17,3 C 6,4 km/h (2 Bft)
26.09.2016 09:15 17,3 C 83 % 1020,8 hPa 0,0 l/m 3,1 km/h (1 Bft) N-NW 329 0 min 21 W/m 14,4 C 17,3 C 9,7 km/h (2 Bft)
26.09.2016 09:18 17,3 C 82 % 1020,9 hPa 0,0 l/m 4,5 km/h (1 Bft) NW 313 0 min 21 W/m 14,2 C 17,3 C 12,9 km/h (3 Bft)
26.09.2016 09:21 17,3 C 82 % 1020,9 hPa 0,0 l/m 4,6 km/h (1 Bft) NW 323 0 min 21 W/m 14,2 C 17,3 C 9,7 km/h (2 Bft)
26.09.2016 09:24 17,4 C 80 % 1020,9 hPa 0,0 l/m 6,9 km/h (2 Bft) NW 326 0 min 23 W/m 13,9 C 17,2 C 12,9 km/h (3 Bft)
26.09.2016 09:27 17,4 C 80 % 1021,0 hPa 0,0 l/m 6,0 km/h (2 Bft) W 272 0 min 23 W/m 13,9 C 17,4 C 11,3 km/h (2 Bft)
26.09.2016 09:30 17,4 C 79 % 1021,0 hPa 0,0 l/m 3,0 km/h (1 Bft) W 267 0 min 23 W/m 13,7 C 17,4 C 6,4 km/h (2 Bft)
26.09.2016 09:33 17,5 C 79 % 1021,0 hPa 0,0 l/m 5,8 km/h (2 Bft) NW 310 0 min 23 W/m 13,8 C 17,5 C 9,7 km/h (2 Bft)
26.09.2016 09:36 17,6 C 79 % 1021,1 hPa 0,0 l/m 4,4 km/h (1 Bft) N-NW 336 0 min 23 W/m 13,9 C 17,6 C 8,0 km/h (2 Bft)
26.09.2016 09:39 17,5 C 79 % 1021,1 hPa 0,0 l/m 4,8 km/h (1 Bft) N-NW 337 0 min 25 W/m 13,8 C 17,5 C 8,0 km/h (2 Bft)
26.09.2016 09:42 17,4 C 79 % 1021,2 hPa 0,0 l/m 5,3 km/h (1 Bft) W-NW 300 0 min 25 W/m 13,7 C 17,4 C 11,3 km/h (2 Bft)
26.09.2016 09:45 17,5 C 79 % 1021,2 hPa 0,0 l/m 5,0 km/h (1 Bft) NW 312 0 min 25 W/m 13,8 C 17,5 C 9,7 km/h (2 Bft)
26.09.2016 09:48 17,6 C 78 % 1021,2 hPa 0,0 l/m 4,4 km/h (1 Bft) N-NW 335 0 min 26 W/m 13,7 C 17,6 C 9,7 km/h (2 Bft)
26.09.2016 09:51 17,7 C 78 % 1021,1 hPa 0,0 l/m 5,1 km/h (1 Bft) NW 324 0 min 26 W/m 13,8 C 17,7 C 9,7 km/h (2 Bft)
26.09.2016 09:54 17,7 C 78 % 1021,1 hPa 0,0 l/m 3,7 km/h (1 Bft) NW 319 0 min 26 W/m 13,8 C 17,7 C 9,7 km/h (2 Bft)
26.09.2016 09:57 17,7 C 78 % 1021,2 hPa 0,0 l/m 4,5 km/h (1 Bft) W-NW 295 0 min 26 W/m 13,8 C 17,7 C 8,0 km/h (2 Bft)
26.09.2016 10:00 17,8 C 77 % 1021,2 hPa 0,0 l/m 5,3 km/h (1 Bft) NW 320 0 min 28 W/m 13,7 C 17,8 C 9,7 km/h (2 Bft)
26.09.2016 10:03 17,8 C 78 % 1021,3 hPa 0,0 l/m 5,3 km/h (1 Bft) NW 304 0 min 28 W/m 13,9 C 17,8 C 8,0 km/h (2 Bft)
26.09.2016 10:06 17,9 C 77 % 1021,2 hPa 0,0 l/m 5,2 km/h (1 Bft) W-SW 254 0 min 30 W/m 13,8 C 17,9 C 11,3 km/h (2 Bft)
26.09.2016 10:09 17,9 C 76 % 1021,3 hPa 0,0 l/m 3,8 km/h (1 Bft) W 259 0 min 30 W/m 13,6 C 17,9 C 8,0 km/h (2 Bft)
26.09.2016 10:12 17,9 C 76 % 1021,3 hPa 0,0 l/m 3,2 km/h (1 Bft) W 271 0 min 30 W/m 13,6 C 17,9 C 8,0 km/h (2 Bft)
26.09.2016 10:15 17,9 C 76 % 1021,3 hPa 0,0 l/m 4,2 km/h (1 Bft) NW 324 0 min 30 W/m 13,6 C 17,9 C 6,4 km/h (2 Bft)
26.09.2016 10:18 18,0 C 76 % 1021,3 hPa 0,0 l/m 5,0 km/h (1 Bft) W-NW 300 0 min 32 W/m 13,7 C 18,0 C 9,7 km/h (2 Bft)
26.09.2016 10:21 17,9 C 75 % 1021,4 hPa 0,0 l/m 5,2 km/h (1 Bft) W-NW 302 0 min 32 W/m 13,4 C 17,9 C 9,7 km/h (2 Bft)
26.09.2016 10:24 17,9 C 75 % 1021,5 hPa 0,0 l/m 5,4 km/h (2 Bft) W-NW 300 0 min 32 W/m 13,4 C 17,9 C 9,7 km/h (2 Bft)
26.09.2016 10:27 17,9 C 75 % 1021,4 hPa 0,0 l/m 7,0 km/h (2 Bft) NW 323 0 min 33 W/m 13,4 C 17,6 C 12,9 km/h (3 Bft)
26.09.2016 10:30 17,9 C 76 % 1021,4 hPa 0,0 l/m 3,8 km/h (1 Bft) W-NW 293 0 min 33 W/m 13,6 C 17,9 C 8,0 km/h (2 Bft)
26.09.2016 10:33 18,0 C 75 % 1021,4 hPa 0,0 l/m 4,9 km/h (1 Bft) NW 309 0 min 33 W/m 13,5 C 18,0 C 9,7 km/h (2 Bft)
26.09.2016 10:36 18,0 C 74 % 1021,5 hPa 0,0 l/m 6,2 km/h (2 Bft) N-NW 344 0 min 33 W/m 13,3 C 18,0 C 9,7 km/h (2 Bft)
26.09.2016 10:39 18,1 C 74 % 1021,5 hPa 0,0 l/m 4,4 km/h (1 Bft) W 277 0 min 33 W/m 13,4 C 18,1 C 9,7 km/h (2 Bft)
26.09.2016 10:42 18,1 C 75 % 1021,5 hPa 0,0 l/m 5,0 km/h (1 Bft) N-NW 345 0 min 33 W/m 13,6 C 18,1 C 9,7 km/h (2 Bft)
26.09.2016 10:45 17,9 C 76 % 1021,6 hPa 0,0 l/m 5,2 km/h (1 Bft) NW 304 0 min 33 W/m 13,6 C 17,9 C 8,0 km/h (2 Bft)
26.09.2016 10:48 17,8 C 76 % 1021,6 hPa 0,0 l/m 5,0 km/h (1 Bft) N-NW 338 0 min 35 W/m 13,5 C 17,8 C 9,7 km/h (2 Bft)
26.09.2016 10:51 17,8 C 75 % 1021,6 hPa 0,0 l/m 3,8 km/h (1 Bft) W 273 0 min 39 W/m 13,3 C 17,8 C 8,0 km/h (2 Bft)
26.09.2016 10:54 17,9 C 75 % 1021,6 hPa 0,0 l/m 4,6 km/h (1 Bft) NW 319 0 min 35 W/m 13,4 C 17,9 C 9,7 km/h (2 Bft)
26.09.2016 10:57 18,1 C 73 % 1021,6 hPa 0,0 l/m 4,1 km/h (1 Bft) W-NW 297 0 min 35 W/m 13,2 C 18,1 C 9,7 km/h (2 Bft)
26.09.2016 11:00 18,1 C 73 % 1021,6 hPa 0,0 l/m 3,8 km/h (1 Bft) W-NW 284 0 min 37 W/m 13,2 C 18,1 C 8,0 km/h (2 Bft)
26.09.2016 11:03 18,2 C 72 % 1021,6 hPa 0,0 l/m 3,2 km/h (1 Bft) NW 322 0 min 56 W/m 13,1 C 18,2 C 8,0 km/h (2 Bft)
26.09.2016 11:06 18,3 C 73 % 1021,6 hPa 0,0 l/m 2,0 km/h (1 Bft) NW 311 0 min 100 W/m 13,4 C 18,3 C 4,8 km/h (1 Bft)
26.09.2016 11:09 18,1 C 74 % 1021,6 hPa 0,0 l/m 2,0 km/h (1 Bft) N-NW 333 0 min 47 W/m 13,4 C 18,1 C 8,0 km/h (2 Bft)
26.09.2016 11:12 18,1 C 75 % 1021,7 hPa 0,0 l/m 5,5 km/h (2 Bft) NW 310 0 min 39 W/m 13,6 C 18,1 C 11,3 km/h (2 Bft)
26.09.2016 11:15 18,2 C 75 % 1021,7 hPa 0,0 l/m 4,7 km/h (1 Bft) N 355 0 min 37 W/m 13,7 C 18,2 C 9,7 km/h (2 Bft)
26.09.2016 11:18 18,1 C 75 % 1021,7 hPa 0,0 l/m 3,6 km/h (1 Bft) N-NW 327 0 min 39 W/m 13,6 C 18,1 C 8,0 km/h (2 Bft)
26.09.2016 11:21 18,1 C 73 % 1021,8 hPa 0,0 l/m 3,1 km/h (1 Bft) N-NW 342 0 min 39 W/m 13,2 C 18,1 C 6,4 km/h (2 Bft)
26.09.2016 11:24 18,3 C 73 % 1021,8 hPa 0,0 l/m 3,7 km/h (1 Bft) W 271 0 min 40 W/m 13,4 C 18,3 C 6,4 km/h (2 Bft)
26.09.2016 11:27 18,4 C 72 % 1021,8 hPa 0,0 l/m 4,0 km/h (1 Bft) W 281 0 min 40 W/m 13,3 C 18,4 C 8,0 km/h (2 Bft)
26.09.2016 11:30 18,5 C 72 % 1021,8 hPa 0,0 l/m 3,2 km/h (1 Bft) NW 322 0 min 42 W/m 13,4 C 18,5 C 8,0 km/h (2 Bft)
26.09.2016 11:33 18,6 C 72 % 1021,8 hPa 0,0 l/m 4,1 km/h (1 Bft) NW 309 0 min 46 W/m 13,4 C 18,6 C 9,7 km/h (2 Bft)
26.09.2016 11:36 18,6 C 73 % 1021,8 hPa 0,0 l/m 3,2 km/h (1 Bft) W-NW 289 0 min 47 W/m 13,7 C 18,6 C 6,4 km/h (2 Bft)
26.09.2016 11:39 18,6 C 73 % 1021,8 hPa 0,0 l/m 3,0 km/h (1 Bft) W 279 0 min 49 W/m 13,7 C 18,6 C 6,4 km/h (2 Bft)
26.09.2016 11:42 18,6 C 71 % 1021,9 hPa 0,0 l/m 4,2 km/h (1 Bft) W-NW 298 0 min 51 W/m 13,2 C 18,6 C 6,4 km/h (2 Bft)
26.09.2016 11:45 18,7 C 71 % 1021,9 hPa 0,0 l/m 5,1 km/h (1 Bft) W 267 0 min 62 W/m 13,3 C 18,7 C 12,9 km/h (3 Bft)
26.09.2016 11:48 18,8 C 72 % 1021,9 hPa 0,0 l/m 4,3 km/h (1 Bft) W-NW 285 0 min 69 W/m 13,6 C 18,8 C 9,7 km/h (2 Bft)
26.09.2016 11:51 18,9 C 70 % 1021,9 hPa 0,0 l/m 4,3 km/h (1 Bft) NW 315 0 min 169 W/m 13,3 C 18,9 C 8,0 km/h (2 Bft)
26.09.2016 11:54 18,9 C 70 % 1021,8 hPa 0,0 l/m 4,0 km/h (1 Bft) NW 321 3 min 485 W/m 13,3 C 18,9 C 9,7 km/h (2 Bft)
26.09.2016 11:57 18,9 C 70 % 1021,9 hPa 0,0 l/m 3,0 km/h (1 Bft) W 271 3 min 490 W/m 13,3 C 18,9 C 9,7 km/h (2 Bft)
26.09.2016 12:00 18,9 C 72 % 1021,9 hPa 0,0 l/m 4,5 km/h (1 Bft) W 281 3 min 494 W/m 13,7 C 18,9 C 9,7 km/h (2 Bft)
26.09.2016 12:03 19,1 C 71 % 1021,9 hPa 0,0 l/m 5,7 km/h (2 Bft) N-NW 330 3 min 497 W/m 13,7 C 19,1 C 9,7 km/h (2 Bft)
26.09.2016 12:06 19,4 C 69 % 1021,9 hPa 0,0 l/m 4,5 km/h (1 Bft) W 280 3 min 499 W/m 13,6 C 19,4 C 9,7 km/h (2 Bft)
26.09.2016 12:09 19,3 C 69 % 1021,9 hPa 0,0 l/m 5,2 km/h (1 Bft) NW 321 3 min 489 W/m 13,5 C 19,3 C 9,7 km/h (2 Bft)
26.09.2016 12:12 19,3 C 69 % 1021,9 hPa 0,0 l/m 4,8 km/h (1 Bft) N-NW 348 3 min 503 W/m 13,5 C 19,3 C 9,7 km/h (2 Bft)
26.09.2016 12:15 19,4 C 72 % 1021,9 hPa 0,0 l/m 5,1 km/h (1 Bft) NW 306 3 min 504 W/m 14,2 C 19,4 C 9,7 km/h (2 Bft)
26.09.2016 12:18 19,3 C 69 % 1021,9 hPa 0,0 l/m 5,1 km/h (1 Bft) NW 323 3 min 524 W/m 13,5 C 19,3 C 9,7 km/h (2 Bft)
26.09.2016 12:21 19,4 C 71 % 1021,9 hPa 0,0 l/m 4,3 km/h (1 Bft) N-NW 338 3 min 520 W/m 14,0 C 19,4 C 8,0 km/h (2 Bft)
26.09.2016 12:24 19,3 C 71 % 1022,0 hPa 0,0 l/m 4,8 km/h (1 Bft) N-NW 336 3 min 512 W/m 13,9 C 19,3 C 8,0 km/h (2 Bft)
26.09.2016 12:27 19,5 C 69 % 1021,9 hPa 0,0 l/m 4,8 km/h (1 Bft) N 360 3 min 494 W/m 13,7 C 19,5 C 9,7 km/h (2 Bft)
26.09.2016 12:30 19,6 C 67 % 1022,0 hPa 0,0 l/m 5,4 km/h (2 Bft) N-NW 327 3 min 517 W/m 13,3 C 19,6 C 14,5 km/h (3 Bft)
26.09.2016 12:33 19,6 C 68 % 1022,0 hPa 0,0 l/m 6,1 km/h (2 Bft) NW 325 3 min 540 W/m 13,5 C 19,6 C 12,9 km/h (3 Bft)
26.09.2016 12:36 19,4 C 67 % 1022,0 hPa 0,0 l/m 4,7 km/h (1 Bft) NW 323 3 min 526 W/m 13,1 C 19,4 C 9,7 km/h (2 Bft)
26.09.2016 12:39 19,6 C 68 % 1022,0 hPa 0,0 l/m 5,3 km/h (1 Bft) N-NW 334 3 min 531 W/m 13,5 C 19,6 C 8,0 km/h (2 Bft)
26.09.2016 12:42 19,6 C 66 % 1022,0 hPa 0,0 l/m 6,8 km/h (2 Bft) NW 319 3 min 536 W/m 13,1 C 19,4 C 11,3 km/h (2 Bft)
26.09.2016 12:45 19,6 C 67 % 1022,1 hPa 0,0 l/m 5,9 km/h (2 Bft) SW 229 3 min 529 W/m 13,3 C 19,6 C 11,3 km/h (2 Bft)
26.09.2016 12:48 19,9 C 68 % 1022,1 hPa 0,0 l/m 3,7 km/h (1 Bft) N-NW 340 3 min 541 W/m 13,8 C 19,9 C 6,4 km/h (2 Bft)
26.09.2016 12:51 20,0 C 69 % 1022,1 hPa 0,0 l/m 3,5 km/h (1 Bft) NW 317 3 min 519 W/m 14,1 C 20,0 C 9,7 km/h (2 Bft)
26.09.2016 12:54 20,1 C 66 % 1022,1 hPa 0,0 l/m 4,7 km/h (1 Bft) W-SW 248 3 min 462 W/m 13,5 C 20,1 C 9,7 km/h (2 Bft)
26.09.2016 12:57 20,2 C 70 % 1022,2 hPa 0,0 l/m 3,6 km/h (1 Bft) NW 315 3 min 513 W/m 14,5 C 20,2 C 4,8 km/h (1 Bft)
26.09.2016 13:00 20,1 C 69 % 1022,1 hPa 0,0 l/m 3,5 km/h (1 Bft) W 281 3 min 501 W/m 14,2 C 20,1 C 8,0 km/h (2 Bft)
26.09.2016 13:03 19,9 C 67 % 1022,2 hPa 0,0 l/m 4,7 km/h (1 Bft) N-NW 348 3 min 475 W/m 13,6 C 19,9 C 8,0 km/h (2 Bft)
26.09.2016 13:06 19,7 C 66 % 1022,2 hPa 0,0 l/m 6,0 km/h (2 Bft) N-NO 14 3 min 462 W/m 13,2 C 19,7 C 12,9 km/h (3 Bft)
26.09.2016 13:09 19,7 C 68 % 1022,2 hPa 0,0 l/m 3,1 km/h (1 Bft) N 349 3 min 438 W/m 13,6 C 19,7 C 6,4 km/h (2 Bft)
26.09.2016 13:12 20,1 C 67 % 1022,1 hPa 0,0 l/m 5,1 km/h (1 Bft) N-NW 338 3 min 439 W/m 13,8 C 20,1 C 9,7 km/h (2 Bft)
26.09.2016 13:15 20,1 C 66 % 1022,2 hPa 0,0 l/m 4,4 km/h (1 Bft) NW 304 3 min 439 W/m 13,5 C 20,1 C 11,3 km/h (2 Bft)
26.09.2016 13:18 19,7 C 69 % 1022,2 hPa 0,0 l/m 3,9 km/h (1 Bft) NW 319 3 min 455 W/m 13,8 C 19,7 C 6,4 km/h (2 Bft)
26.09.2016 13:21 20,2 C 71 % 1022,2 hPa 0,0 l/m 1,5 km/h (1 Bft) N-NW 339 3 min 462 W/m 14,8 C 20,2 C 4,8 km/h (1 Bft)
26.09.2016 13:24 20,3 C 68 % 1022,2 hPa 0,0 l/m 3,5 km/h (1 Bft) N 5 3 min 485 W/m 14,2 C 20,3 C 8,0 km/h (2 Bft)
26.09.2016 13:27 20,2 C 64 % 1022,3 hPa 0,0 l/m 5,8 km/h (2 Bft) W 272 3 min 499 W/m 13,2 C 20,2 C 11,3 km/h (2 Bft)
26.09.2016 13:30 20,3 C 65 % 1022,2 hPa 0,0 l/m 5,0 km/h (1 Bft) NW 315 3 min 496 W/m 13,5 C 20,3 C 11,3 km/h (2 Bft)
26.09.2016 13:33 20,4 C 67 % 1022,2 hPa 0,0 l/m 4,9 km/h (1 Bft) W-SW 258 3 min 487 W/m 14,1 C 20,4 C 9,7 km/h (2 Bft)
26.09.2016 13:36 20,6 C 66 % 1022,1 hPa 0,0 l/m 3,9 km/h (1 Bft) W-NW 302 3 min 469 W/m 14,0 C 20,6 C 9,7 km/h (2 Bft)
26.09.2016 13:39 20,7 C 68 % 1022,1 hPa 0,0 l/m 3,8 km/h (1 Bft) N-NW 340 3 min 427 W/m 14,6 C 20,7 C 11,3 km/h (2 Bft)
26.09.2016 13:42 20,4 C 63 % 1022,1 hPa 0,0 l/m 3,9 km/h (1 Bft) N 355 3 min 468 W/m 13,1 C 20,4 C 8,0 km/h (2 Bft)
26.09.2016 13:45 20,1 C 66 % 1022,1 hPa 0,0 l/m 4,0 km/h (1 Bft) N-NO 24 3 min 485 W/m 13,5 C 20,1 C 8,0 km/h (2 Bft)
26.09.2016 13:48 20,3 C 64 % 1022,1 hPa 0,0 l/m 2,6 km/h (1 Bft) NW 314 3 min 515 W/m 13,3 C 20,3 C 4,8 km/h (1 Bft)
26.09.2016 13:51 20,4 C 64 % 1022,1 hPa 0,0 l/m 5,1 km/h (1 Bft) NW 306 3 min 538 W/m 13,4 C 20,4 C 12,9 km/h (3 Bft)
26.09.2016 13:54 20,5 C 66 % 1022,1 hPa 0,0 l/m 2,5 km/h (1 Bft) NW 326 3 min 548 W/m 13,9 C 20,5 C 4,8 km/h (1 Bft)
26.09.2016 13:57 20,4 C 65 % 1022,1 hPa 0,0 l/m 6,5 km/h (2 Bft) NW 324 3 min 548 W/m 13,6 C 20,4 C 12,9 km/h (3 Bft)
26.09.2016 14:00 20,3 C 68 % 1022,1 hPa 0,0 l/m 3,4 km/h (1 Bft) W-NW 298 3 min 547 W/m 14,2 C 20,3 C 9,7 km/h (2 Bft)
26.09.2016 14:03 20,3 C 64 % 1022,1 hPa 0,0 l/m 7,1 km/h (2 Bft) N-NW 328 3 min 547 W/m 13,3 C 20,0 C 12,9 km/h (3 Bft)
26.09.2016 14:06 20,1 C 65 % 1022,1 hPa 0,0 l/m 3,1 km/h (1 Bft) W 277 3 min 547 W/m 13,3 C 20,1 C 6,4 km/h (2 Bft)
26.09.2016 14:09 20,3 C 65 % 1022,1 hPa 0,0 l/m 5,4 km/h (2 Bft) N-NW 338 3 min 548 W/m 13,5 C 20,3 C 11,3 km/h (2 Bft)
26.09.2016 14:12 20,4 C 64 % 1022,1 hPa 0,0 l/m 4,9 km/h (1 Bft) N 355 3 min 543 W/m 13,4 C 20,4 C 9,7 km/h (2 Bft)
26.09.2016 14:15 20,4 C 65 % 1022,1 hPa 0,0 l/m 3,8 km/h (1 Bft) N 5 3 min 541 W/m 13,6 C 20,4 C 14,5 km/h (3 Bft)
26.09.2016 14:18 20,2 C 65 % 1022,1 hPa 0,0 l/m 4,7 km/h (1 Bft) N 351 3 min 540 W/m 13,4 C 20,2 C 9,7 km/h (2 Bft)
26.09.2016 14:21 20,5 C 69 % 1022,2 hPa 0,0 l/m 3,1 km/h (1 Bft) N 355 3 min 538 W/m 14,6 C 20,5 C 8,0 km/h (2 Bft)
26.09.2016 14:24 20,2 C 65 % 1022,1 hPa 0,0 l/m 3,9 km/h (1 Bft) W-NW 298 3 min 534 W/m 13,4 C 20,2 C 8,0 km/h (2 Bft)
26.09.2016 14:27 20,3 C 67 % 1022,2 hPa 0,0 l/m 5,3 km/h (1 Bft) NW 323 3 min 531 W/m 14,0 C 20,3 C 12,9 km/h (3 Bft)
26.09.2016 14:30 20,6 C 67 % 1022,2 hPa 0,0 l/m 4,0 km/h (1 Bft) N 5 3 min 534 W/m 14,3 C 20,6 C 9,7 km/h (2 Bft)
26.09.2016 14:33 20,6 C 63 % 1022,2 hPa 0,0 l/m 6,0 km/h (2 Bft) N-NW 344 3 min 534 W/m 13,3 C 20,6 C 16,1 km/h (3 Bft)
26.09.2016 14:36 20,8 C 66 % 1022,2 hPa 0,0 l/m 3,0 km/h (1 Bft) NW 317 3 min 533 W/m 14,2 C 20,8 C 4,8 km/h (1 Bft)
26.09.2016 14:39 21,1 C 66 % 1022,2 hPa 0,0 l/m 3,1 km/h (1 Bft) N-NW 336 3 min 529 W/m 14,5 C 21,1 C 8,0 km/h (2 Bft)
26.09.2016 14:42 21,3 C 66 % 1022,2 hPa 0,0 l/m 2,6 km/h (1 Bft) N-NW 333 3 min 524 W/m 14,7 C 21,3 C 4,8 km/h (1 Bft)
26.09.2016 14:45 20,8 C 64 % 1022,3 hPa 0,0 l/m 6,1 km/h (2 Bft) N-NW 342 3 min 520 W/m 13,7 C 20,8 C 9,7 km/h (2 Bft)
26.09.2016 14:48 20,7 C 62 % 1022,3 hPa 0,0 l/m 2,3 km/h (1 Bft) N-NW 342 3 min 515 W/m 13,2 C 20,7 C 4,8 km/h (1 Bft)
26.09.2016 14:51 20,8 C 64 % 1022,3 hPa 0,0 l/m 2,9 km/h (1 Bft) W-NW 301 3 min 510 W/m 13,7 C 20,8 C 6,4 km/h (2 Bft)
26.09.2016 14:54 20,8 C 62 % 1022,2 hPa 0,0 l/m 3,8 km/h (1 Bft) N-NW 345 3 min 508 W/m 13,2 C 20,8 C 6,4 km/h (2 Bft)
26.09.2016 14:57 20,8 C 64 % 1022,2 hPa 0,0 l/m 4,5 km/h (1 Bft) N 349 3 min 504 W/m 13,7 C 20,8 C 9,7 km/h (2 Bft)
26.09.2016 15:00 20,6 C 63 % 1022,3 hPa 0,0 l/m 4,4 km/h (1 Bft) NW 321 3 min 501 W/m 13,3 C 20,6 C 8,0 km/h (2 Bft)
26.09.2016 15:03 20,7 C 66 % 1022,3 hPa 0,0 l/m 6,5 km/h (2 Bft) W-NW 294 3 min 494 W/m 14,1 C 20,7 C 12,9 km/h (3 Bft)
26.09.2016 15:06 20,8 C 65 % 1022,2 hPa 0,0 l/m 3,6 km/h (1 Bft) N-NW 338 3 min 492 W/m 14,0 C 20,8 C 6,4 km/h (2 Bft)
26.09.2016 15:09 20,6 C 63 % 1022,2 hPa 0,0 l/m 2,6 km/h (1 Bft) NW 318 3 min 489 W/m 13,3 C 20,6 C 6,4 km/h (2 Bft)
26.09.2016 15:12 20,7 C 66 % 1022,2 hPa 0,0 l/m 2,5 km/h (1 Bft) N-NW 338 3 min 485 W/m 14,1 C 20,7 C 4,8 km/h (1 Bft)
26.09.2016 15:15 20,5 C 63 % 1022,1 hPa 0,0 l/m 2,6 km/h (1 Bft) N-NW 340 3 min 482 W/m 13,2 C 20,5 C 6,4 km/h (2 Bft)
26.09.2016 15:18 20,2 C 62 % 1022,1 hPa 0,0 l/m 6,0 km/h (2 Bft) N-NW 328 3 min 478 W/m 12,7 C 20,2 C 14,5 km/h (3 Bft)
26.09.2016 15:21 20,0 C 64 % 1022,1 hPa 0,0 l/m 4,3 km/h (1 Bft) N-NW 327 3 min 475 W/m 13,0 C 20,0 C 8,0 km/h (2 Bft)
26.09.2016 15:24 20,1 C 65 % 1022,1 hPa 0,0 l/m 5,4 km/h (2 Bft) NW 321 3 min 468 W/m 13,3 C 20,1 C 9,7 km/h (2 Bft)
26.09.2016 15:27 20,0 C 63 % 1022,1 hPa 0,0 l/m 7,4 km/h (2 Bft) N-NW 329 3 min 464 W/m 12,7 C 19,6 C 14,5 km/h (3 Bft)
26.09.2016 15:30 20,0 C 64 % 1022,1 hPa 0,0 l/m 5,3 km/h (1 Bft) NW 323 3 min 459 W/m 13,0 C 20,0 C 9,7 km/h (2 Bft)
26.09.2016 15:33 19,9 C 65 % 1022,1 hPa 0,0 l/m 5,4 km/h (2 Bft) N-NW 339 3 min 455 W/m 13,1 C 19,9 C 12,9 km/h (3 Bft)
26.09.2016 15:36 19,9 C 62 % 1022,1 hPa 0,0 l/m 5,9 km/h (2 Bft) N-NW 340 3 min 448 W/m 12,4 C 19,9 C 11,3 km/h (2 Bft)
26.09.2016 15:39 19,9 C 65 % 1022,1 hPa 0,0 l/m 4,9 km/h (1 Bft) NW 307 3 min 443 W/m 13,1 C 19,9 C 12,9 km/h (3 Bft)
26.09.2016 15:42 19,9 C 63 % 1022,1 hPa 0,0 l/m 7,2 km/h (2 Bft) NW 313 3 min 439 W/m 12,6 C 19,6 C 12,9 km/h (3 Bft)
26.09.2016 15:45 19,8 C 63 % 1022,1 hPa 0,0 l/m 6,8 km/h (2 Bft) NW 309 3 min 432 W/m 12,5 C 19,6 C 12,9 km/h (3 Bft)
26.09.2016 15:48 19,7 C 63 % 1022,1 hPa 0,0 l/m 6,8 km/h (2 Bft) N-NW 332 3 min 427 W/m 12,5 C 19,5 C 12,9 km/h (3 Bft)
26.09.2016 15:51 19,7 C 64 % 1022,1 hPa 0,0 l/m 4,9 km/h (1 Bft) NO 52 3 min 422 W/m 12,7 C 19,7 C 11,3 km/h (2 Bft)
26.09.2016 15:54 19,7 C 65 % 1022,1 hPa 0,0 l/m 3,0 km/h (1 Bft) N 5 3 min 415 W/m 12,9 C 19,7 C 8,0 km/h (2 Bft)
26.09.2016 15:57 19,6 C 66 % 1022,1 hPa 0,0 l/m 4,4 km/h (1 Bft) NW 317 3 min 410 W/m 13,1 C 19,6 C 8,0 km/h (2 Bft)
26.09.2016 16:00 19,5 C 66 % 1022,2 hPa 0,0 l/m 6,7 km/h (2 Bft) N-NW 340 3 min 390 W/m 13,0 C 19,4 C 12,9 km/h (3 Bft)
26.09.2016 16:03 19,4 C 62 % 1022,1 hPa 0,0 l/m 7,9 km/h (2 Bft) NW 322 0 min 58 W/m 11,9 C 18,8 C 14,5 km/h (3 Bft)
26.09.2016 16:06 19,3 C 63 % 1022,2 hPa 0,0 l/m 6,0 km/h (2 Bft) N-NW 327 0 min 58 W/m 12,1 C 19,3 C 12,9 km/h (3 Bft)
26.09.2016 16:09 19,1 C 65 % 1022,2 hPa 0,0 l/m 4,6 km/h (1 Bft) NW 322 0 min 56 W/m 12,4 C 19,1 C 8,0 km/h (2 Bft)
26.09.2016 16:12 19,2 C 66 % 1022,2 hPa 0,0 l/m 4,6 km/h (1 Bft) N-NW 327 0 min 56 W/m 12,7 C 19,2 C 9,7 km/h (2 Bft)
26.09.2016 16:15 19,1 C 66 % 1022,2 hPa 0,0 l/m 2,7 km/h (1 Bft) N 360 0 min 54 W/m 12,6 C 19,1 C 9,7 km/h (2 Bft)
26.09.2016 16:18 19,1 C 65 % 1022,2 hPa 0,0 l/m 4,4 km/h (1 Bft) NW 313 0 min 54 W/m 12,4 C 19,1 C 8,0 km/h (2 Bft)
26.09.2016 16:21 19,0 C 67 % 1022,2 hPa 0,0 l/m 3,6 km/h (1 Bft) N 355 0 min 54 W/m 12,7 C 19,0 C 6,4 km/h (2 Bft)
26.09.2016 16:24 18,9 C 67 % 1022,3 hPa 0,0 l/m 3,8 km/h (1 Bft) N-NW 329 0 min 53 W/m 12,6 C 18,9 C 8,0 km/h (2 Bft)
26.09.2016 16:27 18,8 C 67 % 1022,3 hPa 0,0 l/m 3,2 km/h (1 Bft) N-NW 336 0 min 53 W/m 12,5 C 18,8 C 9,7 km/h (2 Bft)
26.09.2016 16:30 18,8 C 68 % 1022,2 hPa 0,0 l/m 5,3 km/h (1 Bft) N 11 0 min 53 W/m 12,8 C 18,8 C 9,7 km/h (2 Bft)
26.09.2016 16:33 18,7 C 69 % 1022,3 hPa 0,0 l/m 2,1 km/h (1 Bft) N-NO 30 0 min 51 W/m 12,9 C 18,7 C 3,2 km/h (1 Bft)
26.09.2016 16:36 18,7 C 70 % 1022,3 hPa 0,0 l/m 1,8 km/h (1 Bft) NW 317 0 min 51 W/m 13,1 C 18,7 C 3,2 km/h (1 Bft)
26.09.2016 16:39 18,6 C 70 % 1022,3 hPa 0,0 l/m 2,1 km/h (1 Bft) N-NO 19 0 min 51 W/m 13,0 C 18,6 C 4,8 km/h (1 Bft)
26.09.2016 16:42 18,6 C 69 % 1022,4 hPa 0,0 l/m 3,3 km/h (1 Bft) N-NO 28 0 min 51 W/m 12,8 C 18,6 C 8,0 km/h (2 Bft)
26.09.2016 16:45 18,6 C 69 % 1022,4 hPa 0,0 l/m 4,1 km/h (1 Bft) N 360 0 min 49 W/m 12,8 C 18,6 C 9,7 km/h (2 Bft)
26.09.2016 16:48 18,6 C 69 % 1022,4 hPa 0,0 l/m 2,8 km/h (1 Bft) N-NO 15 0 min 49 W/m 12,8 C 18,6 C 8,0 km/h (2 Bft)
26.09.2016 16:51 18,5 C 70 % 1022,3 hPa 0,0 l/m 2,0 km/h (1 Bft) N 11 0 min 47 W/m 12,9 C 18,5 C 6,4 km/h (2 Bft)
26.09.2016 16:54 18,4 C 69 % 1022,3 hPa 0,0 l/m 1,4 km/h (1 Bft) N 9 0 min 47 W/m 12,6 C 18,4 C 3,2 km/h (1 Bft)
26.09.2016 16:57 18,3 C 70 % 1022,3 hPa 0,0 l/m 2,9 km/h (1 Bft) NW 313 0 min 47 W/m 12,7 C 18,3 C 6,4 km/h (2 Bft)
26.09.2016 17:00 18,3 C 69 % 1022,2 hPa 0,0 l/m 3,1 km/h (1 Bft) N-NW 337 0 min 46 W/m 12,5 C 18,3 C 8,0 km/h (2 Bft)
26.09.2016 17:03 18,2 C 71 % 1022,2 hPa 0,0 l/m 2,5 km/h (1 Bft) N 9 0 min 46 W/m 12,9 C 18,2 C 8,0 km/h (2 Bft)
26.09.2016 17:06 18,2 C 69 % 1022,2 hPa 0,0 l/m 2,2 km/h (1 Bft) N-NW 341 0 min 46 W/m 12,4 C 18,2 C 4,8 km/h (1 Bft)
26.09.2016 17:09 18,2 C 70 % 1022,2 hPa 0,0 l/m 3,1 km/h (1 Bft) N 355 0 min 44 W/m 12,6 C 18,2 C 6,4 km/h (2 Bft)
26.09.2016 17:12 18,1 C 71 % 1022,2 hPa 0,0 l/m 2,4 km/h (1 Bft) N-NW 331 0 min 44 W/m 12,8 C 18,1 C 6,4 km/h (2 Bft)
26.09.2016 17:15 18,1 C 73 % 1022,2 hPa 0,0 l/m 2,4 km/h (1 Bft) N 5 0 min 44 W/m 13,2 C 18,1 C 4,8 km/h (1 Bft)
26.09.2016 17:18 18,0 C 72 % 1022,3 hPa 0,0 l/m 2,3 km/h (1 Bft) NW 313 0 min 44 W/m 12,9 C 18,0 C 4,8 km/h (1 Bft)
26.09.2016 17:21 17,9 C 72 % 1022,3 hPa 0,0 l/m 1,5 km/h (1 Bft) NW 313 0 min 42 W/m 12,8 C 17,9 C 4,8 km/h (1 Bft)
26.09.2016 17:24 17,8 C 73 % 1022,3 hPa 0,0 l/m 2,4 km/h (1 Bft) O-NO 61 0 min 42 W/m 12,9 C 17,8 C 6,4 km/h (2 Bft)
26.09.2016 17:27 17,8 C 72 % 1022,2 hPa 0,0 l/m 3,4 km/h (1 Bft) N-NW 344 0 min 42 W/m 12,7 C 17,8 C 8,0 km/h (2 Bft)
26.09.2016 17:30 17,8 C 73 % 1022,2 hPa 0,0 l/m 2,6 km/h (1 Bft) N 5 0 min 40 W/m 12,9 C 17,8 C 6,4 km/h (2 Bft)
26.09.2016 17:33 17,7 C 73 % 1022,3 hPa 0,0 l/m 2,5 km/h (1 Bft) N 360 0 min 40 W/m 12,8 C 17,7 C 8,0 km/h (2 Bft)
26.09.2016 17:36 17,7 C 72 % 1022,2 hPa 0,0 l/m 2,7 km/h (1 Bft) N 350 0 min 40 W/m 12,6 C 17,7 C 6,4 km/h (2 Bft)
26.09.2016 17:39 17,6 C 72 % 1022,2 hPa 0,0 l/m 2,7 km/h (1 Bft) N-NW 348 0 min 39 W/m 12,5 C 17,6 C 6,4 km/h (2 Bft)
26.09.2016 17:42 17,6 C 73 % 1022,3 hPa 0,0 l/m 2,7 km/h (1 Bft) N 5 0 min 40 W/m 12,7 C 17,6 C 8,0 km/h (2 Bft)
26.09.2016 17:45 17,5 C 73 % 1022,3 hPa 0,0 l/m 2,4 km/h (1 Bft) N-NW 347 0 min 40 W/m 12,6 C 17,5 C 4,8 km/h (1 Bft)
26.09.2016 17:48 17,4 C 74 % 1022,3 hPa 0,0 l/m 1,4 km/h (1 Bft) N-NW 347 0 min 44 W/m 12,7 C 17,4 C 3,2 km/h (1 Bft)
26.09.2016 17:51 17,4 C 74 % 1022,2 hPa 0,0 l/m 2,3 km/h (1 Bft) N 355 0 min 49 W/m 12,7 C 17,4 C 4,8 km/h (1 Bft)
26.09.2016 17:54 17,4 C 74 % 1022,2 hPa 0,0 l/m 1,2 km/h (1 Bft) N 355 0 min 58 W/m 12,7 C 17,4 C 3,2 km/h (1 Bft)
26.09.2016 17:57 17,4 C 73 % 1022,2 hPa 0,0 l/m 3,4 km/h (1 Bft) N-NW 333 0 min 53 W/m 12,5 C 17,4 C 6,4 km/h (2 Bft)
26.09.2016 18:00 17,5 C 73 % 1022,2 hPa 0,0 l/m 2,6 km/h (1 Bft) NW 324 0 min 49 W/m 12,6 C 17,5 C 6,4 km/h (2 Bft)
26.09.2016 18:03 17,4 C 74 % 1022,3 hPa 0,0 l/m 3,1 km/h (1 Bft) N 355 0 min 47 W/m 12,7 C 17,4 C 6,4 km/h (2 Bft)
26.09.2016 18:06 17,4 C 74 % 1022,3 hPa 0,0 l/m 2,4 km/h (1 Bft) N-NW 330 0 min 40 W/m 12,7 C 17,4 C 4,8 km/h (1 Bft)
26.09.2016 18:09 17,3 C 75 % 1022,3 hPa 0,0 l/m 1,1 km/h (1 Bft) N 355 0 min 37 W/m 12,8 C 17,3 C 4,8 km/h (1 Bft)
26.09.2016 18:12 17,2 C 75 % 1022,2 hPa 0,0 l/m 1,7 km/h (1 Bft) N 350 0 min 37 W/m 12,7 C 17,2 C 4,8 km/h (1 Bft)
26.09.2016 18:15 17,2 C 76 % 1022,3 hPa 0,0 l/m 0,7 km/h (0 Bft) N 349 0 min 37 W/m 12,9 C 17,2 C 3,2 km/h (1 Bft)
26.09.2016 18:18 17,1 C 76 % 1022,3 hPa 0,0 l/m 1,0 km/h (0 Bft) N-NW 348 0 min 33 W/m 12,8 C 17,1 C 4,8 km/h (1 Bft)
26.09.2016 18:21 16,9 C 77 % 1022,2 hPa 0,0 l/m 3,2 km/h (1 Bft) N 350 0 min 28 W/m 12,8 C 16,9 C 6,4 km/h (2 Bft)
26.09.2016 18:24 16,9 C 77 % 1022,2 hPa 0,0 l/m 0,6 km/h (0 Bft) N 350 0 min 21 W/m 12,8 C 16,9 C 1,6 km/h (1 Bft)
26.09.2016 18:27 16,7 C 78 % 1022,2 hPa 0,0 l/m 1,1 km/h (1 Bft) N-NW 341 0 min 18 W/m 12,8 C 16,7 C 3,2 km/h (1 Bft)
26.09.2016 18:30 16,6 C 79 % 1022,2 hPa 0,0 l/m 0,5 km/h (0 Bft) N-NW 341 0 min 14 W/m 12,9 C 16,6 C 1,6 km/h (1 Bft)
26.09.2016 18:33 16,5 C 79 % 1022,2 hPa 0,0 l/m 1,8 km/h (1 Bft) N-NW 344 0 min 12 W/m 12,8 C 16,5 C 4,8 km/h (1 Bft)
26.09.2016 18:36 16,4 C 79 % 1022,3 hPa 0,0 l/m 1,0 km/h (0 Bft) N-NW 343 0 min 11 W/m 12,7 C 16,4 C 3,2 km/h (1 Bft)
26.09.2016 18:39 16,3 C 80 % 1022,3 hPa 0,0 l/m 0,2 km/h (0 Bft) N-NW 343 0 min 9 W/m 12,8 C 16,3 C 1,6 km/h (1 Bft)
26.09.2016 18:42 16,1 C 80 % 1022,3 hPa 0,0 l/m 0,4 km/h (0 Bft) N-NW 343 0 min 7 W/m 12,6 C 16,1 C 1,6 km/h (1 Bft)
26.09.2016 18:45 16,0 C 81 % 1022,3 hPa 0,0 l/m 0,2 km/h (0 Bft) N-NW 343 0 min 7 W/m 12,7 C 16,0 C 1,6 km/h (1 Bft)
26.09.2016 18:48 15,9 C 81 % 1022,3 hPa 0,0 l/m 0,0 km/h (0 Bft) N-NW 343 0 min 5 W/m 12,6 C 15,9 C 0,0 km/h (0 Bft)
26.09.2016 18:51 15,8 C 82 % 1022,3 hPa 0,0 l/m 0,3 km/h (0 Bft) N-NW 343 0 min 5 W/m 12,7 C 15,8 C 1,6 km/h (1 Bft)
26.09.2016 18:54 15,7 C 82 % 1022,3 hPa 0,0 l/m 0,3 km/h (0 Bft) N-NW 343 0 min 5 W/m 12,6 C 15,7 C 3,2 km/h (1 Bft)
26.09.2016 18:57 15,7 C 82 % 1022,4 hPa 0,0 l/m 0,1 km/h (0 Bft) N-NW 343 0 min 5 W/m 12,6 C 15,7 C 1,6 km/h (1 Bft)
26.09.2016 19:00 15,6 C 83 % 1022,4 hPa 0,0 l/m 1,0 km/h (0 Bft) N-NW 343 0 min 0 W/m 12,7 C 15,6 C 3,2 km/h (1 Bft)
26.09.2016 19:03 15,4 C 83 % 1022,4 hPa 0,0 l/m 1,4 km/h (1 Bft) N 5 0 min 0 W/m 12,5 C 15,4 C 3,2 km/h (1 Bft)
26.09.2016 19:06 15,4 C 83 % 1022,5 hPa 0,0 l/m 0,5 km/h (0 Bft) N 5 0 min 0 W/m 12,5 C 15,4 C 3,2 km/h (1 Bft)
26.09.2016 19:09 15,3 C 83 % 1022,5 hPa 0,0 l/m 0,7 km/h (0 Bft) N 9 0 min 0 W/m 12,4 C 15,3 C 3,2 km/h (1 Bft)
26.09.2016 19:12 15,2 C 84 % 1022,5 hPa 0,0 l/m 0,9 km/h (0 Bft) N 9 0 min 0 W/m 12,5 C 15,2 C 3,2 km/h (1 Bft)
26.09.2016 19:15 15,1 C 84 % 1022,5 hPa 0,0 l/m 0,3 km/h (0 Bft) N 9 0 min 0 W/m 12,4 C 15,1 C 1,6 km/h (1 Bft)
26.09.2016 19:18 15,1 C 84 % 1022,5 hPa 0,0 l/m 0,1 km/h (0 Bft) N 9 0 min 0 W/m 12,4 C 15,1 C 1,6 km/h (1 Bft)
26.09.2016 19:21 15,1 C 84 % 1022,5 hPa 0,0 l/m 0,4 km/h (0 Bft) N 9 0 min 0 W/m 12,4 C 15,1 C 1,6 km/h (1 Bft)
26.09.2016 19:24 15,0 C 84 % 1022,5 hPa 0,0 l/m 0,3 km/h (0 Bft) N 5 0 min 0 W/m 12,3 C 15,0 C 1,6 km/h (1 Bft)
26.09.2016 19:27 14,9 C 84 % 1022,5 hPa 0,0 l/m 0,3 km/h (0 Bft) N 9 0 min 0 W/m 12,2 C 14,9 C 1,6 km/h (1 Bft)
26.09.2016 19:30 14,9 C 84 % 1022,6 hPa 0,0 l/m 1,1 km/h (1 Bft) N 355 0 min 0 W/m 12,2 C 14,9 C 4,8 km/h (1 Bft)
26.09.2016 19:33 14,9 C 85 % 1022,6 hPa 0,0 l/m 0,9 km/h (0 Bft) N 350 0 min 0 W/m 12,4 C 14,9 C 4,8 km/h (1 Bft)
26.09.2016 19:36 14,8 C 85 % 1022,6 hPa 0,0 l/m 0,2 km/h (0 Bft) N 350 0 min 0 W/m 12,3 C 14,8 C 1,6 km/h (1 Bft)
26.09.2016 19:39 14,8 C 85 % 1022,6 hPa 0,0 l/m 0,8 km/h (0 Bft) N 350 0 min 0 W/m 12,3 C 14,8 C 3,2 km/h (1 Bft)
26.09.2016 19:42 14,8 C 86 % 1022,6 hPa 0,0 l/m 0,9 km/h (0 Bft) N-NW 339 0 min 0 W/m 12,5 C 14,8 C 6,4 km/h (2 Bft)
26.09.2016 19:45 14,8 C 86 % 1022,6 hPa 0,0 l/m 1,0 km/h (0 Bft) N-NW 339 0 min 0 W/m 12,5 C 14,8 C 4,8 km/h (1 Bft)
26.09.2016 19:48 14,8 C 86 % 1022,6 hPa 0,0 l/m 0,5 km/h (0 Bft) N-NW 339 0 min 0 W/m 12,5 C 14,8 C 1,6 km/h (1 Bft)
26.09.2016 19:51 14,8 C 86 % 1022,6 hPa 0,0 l/m 0,6 km/h (0 Bft) N-NW 338 0 min 0 W/m 12,5 C 14,8 C 3,2 km/h (1 Bft)
26.09.2016 19:54 14,8 C 86 % 1022,6 hPa 0,0 l/m 1,2 km/h (1 Bft) N-NW 338 0 min 0 W/m 12,5 C 14,8 C 3,2 km/h (1 Bft)
26.09.2016 19:57 14,8 C 86 % 1022,6 hPa 0,0 l/m 0,2 km/h (0 Bft) N-NW 338 0 min 0 W/m 12,5 C 14,8 C 1,6 km/h (1 Bft)
26.09.2016 20:00 14,7 C 86 % 1022,7 hPa 0,0 l/m 0,4 km/h (0 Bft) N-NW 338 0 min 0 W/m 12,4 C 14,7 C 1,6 km/h (1 Bft)
26.09.2016 20:03 14,7 C 86 % 1022,7 hPa 0,0 l/m 0,3 km/h (0 Bft) N-NW 338 0 min 0 W/m 12,4 C 14,7 C 1,6 km/h (1 Bft)
26.09.2016 20:06 14,7 C 87 % 1022,7 hPa 0,0 l/m 0,3 km/h (0 Bft) N-NW 338 0 min 0 W/m 12,6 C 14,7 C 1,6 km/h (1 Bft)
26.09.2016 20:09 14,6 C 87 % 1022,8 hPa 0,0 l/m 0,5 km/h (0 Bft) N-NW 338 0 min 0 W/m 12,5 C 14,6 C 1,6 km/h (1 Bft)
26.09.2016 20:12 14,6 C 87 % 1022,8 hPa 0,0 l/m 0,1 km/h (0 Bft) N-NW 338 0 min 0 W/m 12,5 C 14,6 C 1,6 km/h (1 Bft)
26.09.2016 20:15 14,7 C 87 % 1022,8 hPa 0,0 l/m 0,0 km/h (0 Bft) N-NW 338 0 min 0 W/m 12,6 C 14,7 C 0,0 km/h (0 Bft)
26.09.2016 20:18 14,6 C 87 % 1022,8 hPa 0,0 l/m 0,7 km/h (0 Bft) N-NW 338 0 min 0 W/m 12,5 C 14,6 C 3,2 km/h (1 Bft)
26.09.2016 20:21 14,6 C 87 % 1022,8 hPa 0,0 l/m 0,4 km/h (0 Bft) N-NW 338 0 min 0 W/m 12,5 C 14,6 C 1,6 km/h (1 Bft)
26.09.2016 20:24 14,6 C 87 % 1022,8 hPa 0,0 l/m 0,6 km/h (0 Bft) N-NW 338 0 min 0 W/m 12,5 C 14,6 C 1,6 km/h (1 Bft)
26.09.2016 20:27 14,6 C 87 % 1022,9 hPa 0,0 l/m 0,3 km/h (0 Bft) N-NW 338 0 min 0 W/m 12,5 C 14,6 C 3,2 km/h (1 Bft)
26.09.2016 20:30 14,5 C 87 % 1022,9 hPa 0,0 l/m 0,2 km/h (0 Bft) N-NW 338 0 min 0 W/m 12,4 C 14,5 C 1,6 km/h (1 Bft)
26.09.2016 20:33 14,4 C 87 % 1023,0 hPa 0,0 l/m 0,4 km/h (0 Bft) N-NW 338 0 min 0 W/m 12,3 C 14,4 C 1,6 km/h (1 Bft)
26.09.2016 20:36 14,4 C 87 % 1023,0 hPa 0,0 l/m 0,4 km/h (0 Bft) N-NW 338 0 min 0 W/m 12,3 C 14,4 C 1,6 km/h (1 Bft)
26.09.2016 20:39 14,4 C 87 % 1023,0 hPa 0,0 l/m 0,8 km/h (0 Bft) N-NW 338 0 min 0 W/m 12,3 C 14,4 C 3,2 km/h (1 Bft)
26.09.2016 20:42 14,4 C 87 % 1023,0 hPa 0,0 l/m 0,5 km/h (0 Bft) N-NW 338 0 min 0 W/m 12,3 C 14,4 C 3,2 km/h (1 Bft)
26.09.2016 20:45 14,4 C 88 % 1023,0 hPa 0,0 l/m 0,7 km/h (0 Bft) N-NW 338 0 min 0 W/m 12,4 C 14,4 C 3,2 km/h (1 Bft)
26.09.2016 20:48 14,3 C 88 % 1023,0 hPa 0,0 l/m 1,7 km/h (1 Bft) N-NW 344 0 min 0 W/m 12,3 C 14,3 C 6,4 km/h (2 Bft)
26.09.2016 20:51 14,3 C 88 % 1023,1 hPa 0,0 l/m 1,5 km/h (1 Bft) N-NW 344 0 min 0 W/m 12,3 C 14,3 C 4,8 km/h (1 Bft)
26.09.2016 20:54 14,3 C 88 % 1023,2 hPa 0,0 l/m 1,1 km/h (1 Bft) N-NW 344 0 min 0 W/m 12,3 C 14,3 C 3,2 km/h (1 Bft)
26.09.2016 20:57 14,2 C 88 % 1023,2 hPa 0,0 l/m 3,0 km/h (1 Bft) N-NW 342 0 min 0 W/m 12,2 C 14,2 C 4,8 km/h (1 Bft)
26.09.2016 21:00 14,2 C 88 % 1023,2 hPa 0,0 l/m 1,5 km/h (1 Bft) N-NW 342 0 min 0 W/m 12,2 C 14,2 C 3,2 km/h (1 Bft)
26.09.2016 21:03 14,2 C 89 % 1023,3 hPa 0,0 l/m 1,7 km/h (1 Bft) N 360 0 min 0 W/m 12,4 C 14,2 C 4,8 km/h (1 Bft)
26.09.2016 21:06 14,2 C 89 % 1023,3 hPa 0,0 l/m 2,4 km/h (1 Bft) N-NW 345 0 min 0 W/m 12,4 C 14,2 C 6,4 km/h (2 Bft)
26.09.2016 21:09 14,2 C 89 % 1023,3 hPa 0,0 l/m 1,5 km/h (1 Bft) N-NW 336 0 min 0 W/m 12,4 C 14,2 C 6,4 km/h (2 Bft)
26.09.2016 21:12 14,2 C 89 % 1023,3 hPa 0,0 l/m 1,0 km/h (0 Bft) N 360 0 min 0 W/m 12,4 C 14,2 C 4,8 km/h (1 Bft)
26.09.2016 21:15 14,2 C 89 % 1023,3 hPa 0,0 l/m 1,5 km/h (1 Bft) N 360 0 min 0 W/m 12,4 C 14,2 C 3,2 km/h (1 Bft)
26.09.2016 21:18 14,2 C 89 % 1023,3 hPa 0,0 l/m 1,7 km/h (1 Bft) N 350 0 min 0 W/m 12,4 C 14,2 C 4,8 km/h (1 Bft)
26.09.2016 21:21 14,2 C 89 % 1023,4 hPa 0,0 l/m 1,6 km/h (1 Bft) N 350 0 min 0 W/m 12,4 C 14,2 C 3,2 km/h (1 Bft)
26.09.2016 21:24 14,1 C 89 % 1023,3 hPa 0,0 l/m 0,4 km/h (0 Bft) N 350 0 min 0 W/m 12,3 C 14,1 C 1,6 km/h (1 Bft)
26.09.2016 21:27 14,1 C 89 % 1023,3 hPa 0,0 l/m 1,0 km/h (0 Bft) N 350 0 min 0 W/m 12,3 C 14,1 C 3,2 km/h (1 Bft)
26.09.2016 21:30 14,1 C 89 % 1023,3 hPa 0,0 l/m 0,4 km/h (0 Bft) N 350 0 min 0 W/m 12,3 C 14,1 C 3,2 km/h (1 Bft)
26.09.2016 21:33 14,1 C 89 % 1023,3 hPa 0,0 l/m 0,8 km/h (0 Bft) N 350 0 min 0 W/m 12,3 C 14,1 C 3,2 km/h (1 Bft)
26.09.2016 21:36 14,1 C 89 % 1023,3 hPa 0,0 l/m 0,9 km/h (0 Bft) N 350 0 min 0 W/m 12,3 C 14,1 C 3,2 km/h (1 Bft)
26.09.2016 21:39 14,0 C 89 % 1023,4 hPa 0,0 l/m 0,7 km/h (0 Bft) N 350 0 min 0 W/m 12,2 C 14,0 C 1,6 km/h (1 Bft)
26.09.2016 21:42 13,9 C 89 % 1023,4 hPa 0,0 l/m 0,4 km/h (0 Bft) N 350 0 min 0 W/m 12,1 C 13,9 C 3,2 km/h (1 Bft)
26.09.2016 21:45 13,9 C 89 % 1023,4 hPa 0,0 l/m 0,7 km/h (0 Bft) N 350 0 min 0 W/m 12,1 C 13,9 C 4,8 km/h (1 Bft)
26.09.2016 21:48 13,8 C 89 % 1023,3 hPa 0,0 l/m 1,1 km/h (1 Bft) N 350 0 min 0 W/m 12,0 C 13,8 C 3,2 km/h (1 Bft)
26.09.2016 21:51 13,8 C 89 % 1023,4 hPa 0,0 l/m 1,8 km/h (1 Bft) N-NW 343 0 min 0 W/m 12,0 C 13,8 C 3,2 km/h (1 Bft)
26.09.2016 21:54 13,7 C 90 % 1023,4 hPa 0,0 l/m 2,4 km/h (1 Bft) N-NW 332 0 min 0 W/m 12,1 C 13,7 C 4,8 km/h (1 Bft)
26.09.2016 21:57 13,7 C 90 % 1023,3 hPa 0,0 l/m 1,4 km/h (1 Bft) N-NW 332 0 min 0 W/m 12,1 C 13,7 C 4,8 km/h (1 Bft)
26.09.2016 22:00 13,7 C 90 % 1023,3 hPa 0,0 l/m 0,2 km/h (0 Bft) N-NW 332 0 min 0 W/m 12,1 C 13,7 C 1,6 km/h (1 Bft)
26.09.2016 22:03 13,7 C 90 % 1023,4 hPa 0,0 l/m 0,3 km/h (0 Bft) N-NW 332 0 min 0 W/m 12,1 C 13,7 C 1,6 km/h (1 Bft)
26.09.2016 22:06 13,7 C 90 % 1023,3 hPa 0,0 l/m 0,5 km/h (0 Bft) N-NW 332 0 min 0 W/m 12,1 C 13,7 C 3,2 km/h (1 Bft)
26.09.2016 22:09 13,6 C 90 % 1023,3 hPa 0,0 l/m 1,8 km/h (1 Bft) N-NW 332 0 min 0 W/m 12,0 C 13,6 C 4,8 km/h (1 Bft)
26.09.2016 22:12 13,7 C 90 % 1023,3 hPa 0,0 l/m 0,4 km/h (0 Bft) N-NW 332 0 min 0 W/m 12,1 C 13,7 C 1,6 km/h (1 Bft)
26.09.2016 22:15 13,7 C 90 % 1023,3 hPa 0,0 l/m 0,4 km/h (0 Bft) N-NW 332 0 min 0 W/m 12,1 C 13,7 C 3,2 km/h (1 Bft)
26.09.2016 22:18 13,6 C 90 % 1023,3 hPa 0,0 l/m 0,7 km/h (0 Bft) N-NW 332 0 min 0 W/m 12,0 C 13,6 C 3,2 km/h (1 Bft)
26.09.2016 22:21 13,7 C 90 % 1023,3 hPa 0,0 l/m 0,7 km/h (0 Bft) N-NW 332 0 min 0 W/m 12,1 C 13,7 C 3,2 km/h (1 Bft)
26.09.2016 22:24 13,7 C 90 % 1023,3 hPa 0,0 l/m 0,3 km/h (0 Bft) N-NW 332 0 min 0 W/m 12,1 C 13,7 C 1,6 km/h (1 Bft)
26.09.2016 22:27 13,7 C 90 % 1023,3 hPa 0,0 l/m 0,6 km/h (0 Bft) N-NW 332 0 min 0 W/m 12,1 C 13,7 C 3,2 km/h (1 Bft)
26.09.2016 22:30 13,6 C 90 % 1023,3 hPa 0,0 l/m 0,8 km/h (0 Bft) N-NW 332 0 min 0 W/m 12,0 C 13,6 C 3,2 km/h (1 Bft)
26.09.2016 22:33 13,4 C 90 % 1023,2 hPa 0,0 l/m 0,7 km/h (0 Bft) N-NW 332 0 min 0 W/m 11,8 C 13,4 C 3,2 km/h (1 Bft)
26.09.2016 22:36 13,3 C 90 % 1023,2 hPa 0,0 l/m 0,3 km/h (0 Bft) N-NW 332 0 min 0 W/m 11,7 C 13,3 C 1,6 km/h (1 Bft)
26.09.2016 22:39 13,2 C 89 % 1023,3 hPa 0,0 l/m 0,4 km/h (0 Bft) N-NW 332 0 min 0 W/m 11,4 C 13,2 C 1,6 km/h (1 Bft)
26.09.2016 22:42 13,0 C 89 % 1023,3 hPa 0,0 l/m 0,4 km/h (0 Bft) N-NW 336 0 min 0 W/m 11,2 C 13,0 C 3,2 km/h (1 Bft)
26.09.2016 22:45 12,9 C 89 % 1023,3 hPa 0,0 l/m 0,3 km/h (0 Bft) N-NW 336 0 min 0 W/m 11,1 C 12,9 C 1,6 km/h (1 Bft)
26.09.2016 22:48 12,9 C 89 % 1023,2 hPa 0,0 l/m 0,4 km/h (0 Bft) N-NW 336 0 min 0 W/m 11,1 C 12,9 C 3,2 km/h (1 Bft)
26.09.2016 22:51 13,0 C 89 % 1023,3 hPa 0,0 l/m 0,2 km/h (0 Bft) N-NW 336 0 min 0 W/m 11,2 C 13,0 C 1,6 km/h (1 Bft)
26.09.2016 22:54 13,1 C 89 % 1023,3 hPa 0,0 l/m 0,4 km/h (0 Bft) N-NW 336 0 min 0 W/m 11,3 C 13,1 C 3,2 km/h (1 Bft)
26.09.2016 22:57 13,1 C 89 % 1023,3 hPa 0,0 l/m 0,1 km/h (0 Bft) N-NW 336 0 min 0 W/m 11,3 C 13,1 C 1,6 km/h (1 Bft)
26.09.2016 23:00 13,0 C 89 % 1023,2 hPa 0,0 l/m 0,3 km/h (0 Bft) N-NW 336 0 min 0 W/m 11,2 C 13,0 C 1,6 km/h (1 Bft)
26.09.2016 23:03 12,9 C 89 % 1023,2 hPa 0,0 l/m 0,1 km/h (0 Bft) N-NW 336 0 min 0 W/m 11,1 C 12,9 C 1,6 km/h (1 Bft)
26.09.2016 23:06 12,9 C 89 % 1023,1 hPa 0,0 l/m 0,1 km/h (0 Bft) N-NW 336 0 min 0 W/m 11,1 C 12,9 C 1,6 km/h (1 Bft)
26.09.2016 23:09 12,9 C 89 % 1023,1 hPa 0,0 l/m 0,0 km/h (0 Bft) N-NW 336 0 min 0 W/m 11,1 C 12,9 C 1,6 km/h (1 Bft)
26.09.2016 23:12 13,0 C 90 % 1023,1 hPa 0,0 l/m 0,0 km/h (0 Bft) N-NW 336 0 min 0 W/m 11,4 C 13,0 C 0,0 km/h (0 Bft)
26.09.2016 23:15 13,1 C 90 % 1023,1 hPa 0,0 l/m 0,0 km/h (0 Bft) N-NW 336 0 min 0 W/m 11,5 C 13,1 C 0,0 km/h (0 Bft)
26.09.2016 23:18 13,1 C 90 % 1023,1 hPa 0,0 l/m 0,0 km/h (0 Bft) N-NW 336 0 min 0 W/m 11,5 C 13,1 C 1,6 km/h (1 Bft)
26.09.2016 23:21 13,1 C 91 % 1023,1 hPa 0,0 l/m 0,0 km/h (0 Bft) N-NW 336 0 min 0 W/m 11,7 C 13,1 C 0,0 km/h (0 Bft)
26.09.2016 23:24 13,1 C 91 % 1023,1 hPa 0,0 l/m 0,1 km/h (0 Bft) N-NW 336 0 min 0 W/m 11,7 C 13,1 C 1,6 km/h (1 Bft)
26.09.2016 23:27 13,1 C 91 % 1023,2 hPa 0,0 l/m 0,3 km/h (0 Bft) N-NW 336 0 min 0 W/m 11,7 C 13,1 C 1,6 km/h (1 Bft)
26.09.2016 23:30 13,0 C 91 % 1023,2 hPa 0,0 l/m 0,2 km/h (0 Bft) N-NW 336 0 min 0 W/m 11,6 C 13,0 C 1,6 km/h (1 Bft)
26.09.2016 23:33 12,9 C 91 % 1023,2 hPa 0,0 l/m 0,7 km/h (0 Bft) N-NW 336 0 min 0 W/m 11,5 C 12,9 C 3,2 km/h (1 Bft)
26.09.2016 23:36 12,9 C 91 % 1023,3 hPa 0,0 l/m 0,1 km/h (0 Bft) N-NW 336 0 min 0 W/m 11,5 C 12,9 C 1,6 km/h (1 Bft)
26.09.2016 23:39 12,8 C 91 % 1023,3 hPa 0,0 l/m 0,1 km/h (0 Bft) N-NW 336 0 min 0 W/m 11,4 C 12,8 C 1,6 km/h (1 Bft)
26.09.2016 23:42 12,4 C 90 % 1023,3 hPa 0,0 l/m 0,0 km/h (0 Bft) N-NW 336 0 min 0 W/m 10,8 C 12,4 C 0,0 km/h (0 Bft)
26.09.2016 23:45 12,2 C 90 % 1023,2 hPa 0,0 l/m 0,0 km/h (0 Bft) N-NW 336 0 min 0 W/m 10,6 C 12,2 C 0,0 km/h (0 Bft)
26.09.2016 23:48 12,2 C 90 % 1023,3 hPa 0,0 l/m 0,0 km/h (0 Bft) N-NW 336 0 min 0 W/m 10,6 C 12,2 C 1,6 km/h (1 Bft)
26.09.2016 23:51 12,1 C 90 % 1023,2 hPa 0,0 l/m 0,0 km/h (0 Bft) N-NW 336 0 min 0 W/m 10,5 C 12,1 C 1,6 km/h (1 Bft)
26.09.2016 23:54 12,1 C 91 % 1023,3 hPa 0,0 l/m 0,2 km/h (0 Bft) N-NW 336 0 min 0 W/m 10,7 C 12,1 C 1,6 km/h (1 Bft)
26.09.2016 23:57 12,0 C 91 % 1023,3 hPa 0,0 l/m 0,1 km/h (0 Bft) N-NW 336 0 min 0 W/m 10,6 C 12,0 C 1,6 km/h (1 Bft)
_ Min-Zeit 23:57 14:48 00:03 - 07:15 - - - - 23:51 23:57 07:15
Minimum _ 12,0 C 62 % 1017,4 hPa - 0,0 km/h (0 Bft) - - - - 10,5 C 12,0 C 0,0 km/h (0 Bft)
_ Max-Zeit 14:42 08:09 21:21 00:00 00:12 - - 11:54 13:54 00:12 14:42 00:12
Maximum _ 21,3 C 96 % 1023,4 hPa 0,0 l/m 9,1 km/h
W (2 Bft)
- - 3 min 548 W/m 16,4 C 21,3 C 16,1 km/h
W (3 Bft)
Durchschnitt _ 17,0 C 81 % 1021,2 hPa #0,0 l/m 3,1 km/h (1 Bft) W - #4:09 h 200 W/m 13,6 C 17,0 C 6,9 km/h (2 Bft)
2016 Cux-Wetter.de -Die Nutzung der Wetterdaten nur mit ausdrcklicher Genehmigung